Observation data for Odell on 02/14/2018      Previous  Date  Next       Current Mesonet Observations  Soil Data  Daily Summary Page  Observations in Plain Language
KOD1 140600Z 14008KT 04/04 A3025 RMK A01 T00410038  RH  098%=      5-min Rain = 0
KOD1 140601Z 14007KT 04/04 A3025 RMK A01 T00410038  RH  098%=      5-min Rain = 0
KOD1 140602Z 14009KT 04/04 A3025 RMK A01 T00410038  RH  098%=      5-min Rain = 0
KOD1 140603Z 14008KT 04/04 A3025 RMK A01 T00410038  RH  098%=      5-min Rain = 0
KOD1 140604Z 14010KT 04/04 A3025 RMK A01 T00420038  RH  098%=      5-min Rain = 0
KOD1 140605Z 14010KT 04/04 A3025 RMK A01 T00420039  RH  098%=      5-min Rain = 0
KOD1 140606Z 14010KT 04/04 A3025 RMK A01 T00430040  RH  098%=      5-min Rain = 0
KOD1 140607Z 14011KT 04/04 A3025 RMK A01 T00440041  RH  098%=      5-min Rain = 0
KOD1 140608Z 14010KT 04/04 A3025 RMK A01 T00440042  RH  098%=      5-min Rain = 0
KOD1 140609Z 14010KT 05/04 A3025 RMK A01 T00450042  RH  098%=      5-min Rain = 0
KOD1 140610Z 15010KT 05/04 A3025 RMK A01 T00450042  RH  098%=      5-min Rain = 0
KOD1 140611Z 15011G16KT 05/04 A3025 RMK A01 T00460042  RH  098%=      5-min Rain = 0
KOD1 140612Z 14011KT 05/04 A3024 RMK A01 T00460043  RH  098%=      5-min Rain = 0
KOD1 140613Z 14010KT 05/04 A3024 RMK A01 T00470044  RH  098%=      5-min Rain = 0
KOD1 140614Z 14010KT 05/04 A3024 RMK A01 T00470044  RH  098%=      5-min Rain = 0
KOD1 140615Z 14009KT 05/04 A3024 RMK A01 T00470044  RH  098%=      5-min Rain = 0
KOD1 140616Z 15009KT 05/04 A3024 RMK A01 T00470043  RH  097%=      5-min Rain = 0
KOD1 140617Z 13008KT 05/04 A3024 RMK A01 T00470043  RH  097%=      5-min Rain = 0
KOD1 140618Z 14008KT 05/04 A3024 RMK A01 T00460042  RH  097%=      5-min Rain = 0
KOD1 140619Z 14009KT 05/04 A3024 RMK A01 T00460042  RH  097%=      5-min Rain = 0
KOD1 140620Z 14008KT 05/04 A3024 RMK A01 T00460042  RH  097%=      5-min Rain = 0
KOD1 140621Z 14010KT 05/04 A3025 RMK A01 T00460042  RH  097%=      5-min Rain = 0
KOD1 140622Z 14008KT 05/04 A3025 RMK A01 T00460042  RH  097%=      5-min Rain = 0
KOD1 140623Z 14010KT 05/04 A3025 RMK A01 T00460042  RH  097%=      5-min Rain = 0
KOD1 140624Z 15009KT 05/04 A3024 RMK A01 T00460042  RH  097%=      5-min Rain = 0
KOD1 140625Z 15010KT 05/04 A3024 RMK A01 T00460042  RH  097%=      5-min Rain = 0
KOD1 140626Z 15011KT 05/04 A3024 RMK A01 T00470042  RH  097%=      5-min Rain = 0
KOD1 140627Z 15009KT 05/04 A3024 RMK A01 T00470043  RH  097%=      5-min Rain = 0
KOD1 140628Z 14010KT 05/04 A3024 RMK A01 T00470043  RH  097%=      5-min Rain = 0
KOD1 140629Z 15011KT 05/04 A3024 RMK A01 T00480043  RH  097%=      5-min Rain = 0
KOD1 140630Z 15011KT 05/04 A3024 RMK A01 T00480044  RH  097%=      5-min Rain = 0
KOD1 140631Z 15012KT 05/04 A3024 RMK A01 T00480044  RH  097%=      5-min Rain = 0
KOD1 140632Z 15010KT 05/04 A3024 RMK A01 T00480043  RH  097%=      5-min Rain = 0
KOD1 140633Z 15012KT 05/04 A3024 RMK A01 T00490044  RH  097%=      5-min Rain = 0
KOD1 140634Z 15010KT 05/04 A3024 RMK A01 T00490044  RH  097%=      5-min Rain = 0
KOD1 140635Z 15010KT 05/04 A3024 RMK A01 T00480043  RH  097%=      5-min Rain = 0
KOD1 140636Z 15011KT 05/04 A3025 RMK A01 T00490043  RH  097%=      5-min Rain = 0
KOD1 140637Z 15011KT 05/04 A3025 RMK A01 T00490044  RH  097%=      5-min Rain = 0
KOD1 140638Z 15011KT 05/04 A3025 RMK A01 T00490043  RH  096%=      5-min Rain = 0
KOD1 140639Z 15010KT 05/04 A3025 RMK A01 T00490044  RH  096%=      5-min Rain = 0
KOD1 140640Z 15010KT 05/04 A3025 RMK A01 T00490043  RH  096%=      5-min Rain = 0
KOD1 140641Z 15011KT 05/04 A3025 RMK A01 T00480043  RH  096%=      5-min Rain = 0
KOD1 140642Z 15010KT 05/04 A3025 RMK A01 T00480042  RH  096%=      5-min Rain = 0
KOD1 140643Z 15010KT 05/04 A3025 RMK A01 T00480042  RH  096%=      5-min Rain = 0
KOD1 140644Z 15010KT 05/04 A3025 RMK A01 T00470042  RH  096%=      5-min Rain = 0
KOD1 140645Z 15010KT 05/04 A3025 RMK A01 T00470041  RH  096%=      5-min Rain = 0
KOD1 140646Z 15010KT 05/04 A3025 RMK A01 T00470041  RH  096%=      5-min Rain = 0
KOD1 140647Z 15010KT 05/04 A3025 RMK A01 T00470041  RH  096%=      5-min Rain = 0
KOD1 140648Z 15010KT 05/04 A3025 RMK A01 T00460041  RH  096%=      5-min Rain = 0
KOD1 140649Z 16010KT 05/04 A3025 RMK A01 T00460040  RH  096%=      5-min Rain = 0
KOD1 140650Z 15011KT 05/04 A3025 RMK A01 T00460040  RH  096%=      5-min Rain = 0
KOD1 140651Z 15010KT 05/04 A3024 RMK A01 T00460040  RH  096%=      5-min Rain = 0
KOD1 140652Z 16011KT 05/04 A3024 RMK A01 T00460041  RH  096%=      5-min Rain = 0
KOD1 140653Z 15010KT 05/04 A3025 RMK A01 T00460040  RH  096%=      5-min Rain = 0
KOD1 140654Z 16011KT 05/04 A3025 RMK A01 T00460040  RH  096%=      5-min Rain = 0
KOD1 140655Z 15011KT 05/04 A3025 RMK A01 T00460040  RH  096%=      5-min Rain = 0
KOD1 140656Z 16011KT 05/04 A3025 RMK A01 T00460040  RH  096%=      5-min Rain = 0
KOD1 140657Z 16010KT 05/04 A3025 RMK A01 T00450040  RH  096%=      5-min Rain = 0
KOD1 140658Z 15010KT 05/04 A3025 RMK A01 T00450040  RH  096%=      5-min Rain = 0
KOD1 140659Z 15010KT 05/04 A3025 RMK A01 T00450040  RH  096%=      5-min Rain = 0
KOD1 140700Z 15011KT 05/04 A3025 RMK A01 T00460040  RH  097%=      5-min Rain = 0
KOD1 140701Z 15009KT 05/04 A3025 RMK A01 T00460041  RH  097%=      5-min Rain = 0
KOD1 140702Z 15009KT 05/04 A3025 RMK A01 T00450040  RH  096%=      5-min Rain = 0
KOD1 140703Z 16009KT 05/04 A3025 RMK A01 T00450040  RH  096%=      5-min Rain = 0
KOD1 140704Z 16010KT 05/04 A3025 RMK A01 T00450040  RH  096%=      5-min Rain = 0
KOD1 140705Z 15009KT 05/04 A3025 RMK A01 T00450040  RH  096%=      5-min Rain = 0
KOD1 140706Z 16010KT 05/04 A3025 RMK A01 T00450040  RH  096%=      5-min Rain = 0
KOD1 140707Z 15009KT 05/04 A3025 RMK A01 T00450040  RH  096%=      5-min Rain = 0
KOD1 140708Z 15009KT 05/04 A3025 RMK A01 T00450040  RH  096%=      5-min Rain = 0
KOD1 140709Z 15009KT 05/04 A3025 RMK A01 T00450040  RH  096%=      5-min Rain = 0
KOD1 140710Z 15010KT 05/04 A3025 RMK A01 T00450040  RH  096%=      5-min Rain = 0
KOD1 140711Z 14009KT 05/04 A3025 RMK A01 T00450040  RH  097%=      5-min Rain = 0
KOD1 140712Z 15008KT 05/04 A3025 RMK A01 T00450040  RH  096%=      5-min Rain = 0
KOD1 140713Z 15009KT 05/04 A3025 RMK A01 T00450040  RH  096%=      5-min Rain = 0
KOD1 140714Z 15009KT 05/04 A3025 RMK A01 T00450040  RH  097%=      5-min Rain = 0
KOD1 140715Z 15008KT 05/04 A3025 RMK A01 T00450040  RH  096%=      5-min Rain = 0
KOD1 140716Z 15009KT 05/04 A3024 RMK A01 T00450040  RH  097%=      5-min Rain = 0
KOD1 140717Z 15009KT 05/04 A3024 RMK A01 T00450040  RH  097%=      5-min Rain = 0
KOD1 140718Z 15008KT 05/04 A3025 RMK A01 T00450040  RH  097%=      5-min Rain = 0
KOD1 140719Z 15009KT 05/04 A3025 RMK A01 T00450040  RH  097%=      5-min Rain = 0
KOD1 140720Z 15010KT 05/04 A3025 RMK A01 T00450041  RH  097%=      5-min Rain = 0
KOD1 140721Z 15009KT 05/04 A3025 RMK A01 T00460041  RH  097%=      5-min Rain = 0
KOD1 140722Z 15011KT 05/04 A3025 RMK A01 T00460041  RH  097%=      5-min Rain = 0
KOD1 140723Z 15009KT 05/04 A3025 RMK A01 T00460041  RH  097%=      5-min Rain = 0
KOD1 140724Z 15009KT 05/04 A3025 RMK A01 T00460041  RH  097%=      5-min Rain = 0
KOD1 140725Z 15009KT 05/04 A3025 RMK A01 T00460041  RH  097%=      5-min Rain = 0
KOD1 140726Z 15009KT 05/04 A3025 RMK A01 T00460041  RH  097%=      5-min Rain = 0
KOD1 140727Z 15010KT 05/04 A3025 RMK A01 T00460041  RH  097%=      5-min Rain = 0
KOD1 140728Z 15008KT 05/04 A3025 RMK A01 T00460041  RH  097%=      5-min Rain = 0
KOD1 140729Z 15009KT 05/04 A3025 RMK A01 T00470042  RH  097%=      5-min Rain = 0
KOD1 140730Z 15010KT 05/04 A3025 RMK A01 T00470042  RH  097%=      5-min Rain = 0
KOD1 140731Z 15010KT 05/04 A3025 RMK A01 T00470042  RH  097%=      5-min Rain = 0
KOD1 140732Z 15010KT 05/04 A3025 RMK A01 T00470042  RH  097%=      5-min Rain = 0
KOD1 140733Z 15010KT 05/04 A3025 RMK A01 T00470042  RH  096%=      5-min Rain = 0
KOD1 140734Z 15009KT 05/04 A3025 RMK A01 T00470042  RH  097%=      5-min Rain = 0
KOD1 140735Z 15010KT 05/04 A3025 RMK A01 T00470042  RH  096%=      5-min Rain = 0
KOD1 140736Z 15008KT 05/04 A3025 RMK A01 T00470042  RH  096%=      5-min Rain = 0
KOD1 140737Z 15008KT 05/04 A3025 RMK A01 T00470042  RH  096%=      5-min Rain = 0
KOD1 140738Z 15009KT 05/04 A3025 RMK A01 T00470042  RH  096%=      5-min Rain = 0
KOD1 140739Z 15008KT 05/04 A3025 RMK A01 T00470042  RH  096%=      5-min Rain = 0
KOD1 140740Z 14008G13KT 05/04 A3025 RMK A01 T00470042  RH  096%=      5-min Rain = 0
KOD1 140741Z 15009KT 05/04 A3024 RMK A01 T00470042  RH  096%=      5-min Rain = 0
KOD1 140742Z 15007KT 05/04 A3024 RMK A01 T00470042  RH  096%=      5-min Rain = 0
KOD1 140743Z 14008KT 05/04 A3024 RMK A01 T00470042  RH  096%=      5-min Rain = 0
KOD1 140744Z 14009KT 05/04 A3024 RMK A01 T00470041  RH  096%=      5-min Rain = 0
KOD1 140745Z 14009KT 05/04 A3024 RMK A01 T00470042  RH  096%=      5-min Rain = 0
KOD1 140746Z 14007KT 05/04 A3025 RMK A01 T00470041  RH  096%=      5-min Rain = 0
KOD1 140747Z 15007KT 05/04 A3025 RMK A01 T00470041  RH  096%=      5-min Rain = 0
KOD1 140748Z 15008KT 05/04 A3025 RMK A01 T00470041  RH  096%=      5-min Rain = 0
KOD1 140749Z 15008KT 05/04 A3025 RMK A01 T00470042  RH  096%=      5-min Rain = 0
KOD1 140750Z 15008KT 05/04 A3025 RMK A01 T00470042  RH  096%=      5-min Rain = 0
KOD1 140751Z 15007KT 05/04 A3025 RMK A01 T00470041  RH  096%=      5-min Rain = 0
KOD1 140752Z 14007KT 05/04 A3025 RMK A01 T00470041  RH  096%=      5-min Rain = 0
KOD1 140753Z 14006KT 05/04 A3024 RMK A01 T00470041  RH  096%=      5-min Rain = 0
KOD1 140754Z 14007KT 05/04 A3024 RMK A01 T00470041  RH  096%=      5-min Rain = 0
KOD1 140755Z 14006KT 05/04 A3024 RMK A01 T00460040  RH  096%=      5-min Rain = 0
KOD1 140756Z 15007KT 05/04 A3024 RMK A01 T00460040  RH  096%=      5-min Rain = 0
KOD1 140757Z 15008KT 05/04 A3024 RMK A01 T00460040  RH  096%=      5-min Rain = 0
KOD1 140758Z 15008KT 05/04 A3024 RMK A01 T00460040  RH  096%=      5-min Rain = 0
KOD1 140759Z 15007KT 05/04 A3024 RMK A01 T00460040  RH  096%=      5-min Rain = 0
KOD1 140800Z 15007KT 05/04 A3024 RMK A01 T00450040  RH  096%=      5-min Rain = 0
KOD1 140801Z 15007KT 05/04 A3024 RMK A01 T00450040  RH  096%=      5-min Rain = 0
KOD1 140802Z 14008KT 05/04 A3024 RMK A01 T00460040  RH  096%=      5-min Rain = 0
KOD1 140803Z 14006KT 05/04 A3023 RMK A01 T00460041  RH  096%=      5-min Rain = 0
KOD1 140804Z 14005KT 05/04 A3023 RMK A01 T00460040  RH  096%=      5-min Rain = 0
KOD1 140805Z 14004KT 05/04 A3023 RMK A01 T00450040  RH  096%=      5-min Rain = 0
KOD1 140806Z 14005KT 05/04 A3023 RMK A01 T00450039  RH  096%=      5-min Rain = 0
KOD1 140807Z 13004KT 05/04 A3023 RMK A01 T00450039  RH  096%=      5-min Rain = 0
KOD1 140808Z 14004KT 04/04 A3023 RMK A01 T00440038  RH  096%=      5-min Rain = 0
KOD1 140809Z 13004KT 04/04 A3023 RMK A01 T00440038  RH  096%=      5-min Rain = 0
KOD1 140810Z 13005KT 04/04 A3023 RMK A01 T00440038  RH  096%=      5-min Rain = 0
KOD1 140811Z 14004KT 04/04 A3023 RMK A01 T00440038  RH  096%=      5-min Rain = 0
KOD1 140812Z 13004KT 04/04 A3023 RMK A01 T00430038  RH  096%=      5-min Rain = 0
KOD1 140813Z 14005KT 04/04 A3023 RMK A01 T00430038  RH  096%=      5-min Rain = 0
KOD1 140814Z 13004KT 04/04 A3023 RMK A01 T00430038  RH  096%=      5-min Rain = 0
KOD1 140815Z 13005KT 04/04 A3023 RMK A01 T00430038  RH  096%=      5-min Rain = 0
KOD1 140816Z 14005KT 04/04 A3023 RMK A01 T00430037  RH  096%=      5-min Rain = 0
KOD1 140817Z 14006KT 04/04 A3023 RMK A01 T00430038  RH  096%=      5-min Rain = 0
KOD1 140818Z 14005KT 04/04 A3023 RMK A01 T00430038  RH  096%=      5-min Rain = 0
KOD1 140819Z 14006KT 04/04 A3023 RMK A01 T00430038  RH  096%=      5-min Rain = 0
KOD1 140820Z 14007KT 04/04 A3023 RMK A01 T00430038  RH  096%=      5-min Rain = 0
KOD1 140821Z 14006KT 04/04 A3023 RMK A01 T00430038  RH  096%=      5-min Rain = 0
KOD1 140822Z 14007KT 04/04 A3023 RMK A01 T00430038  RH  096%=      5-min Rain = 0
KOD1 140823Z 14008KT 04/04 A3023 RMK A01 T00430038  RH  097%=      5-min Rain = 0
KOD1 140824Z 14007KT 04/04 A3023 RMK A01 T00430038  RH  097%=      5-min Rain = 0
KOD1 140825Z 15006KT 04/04 A3022 RMK A01 T00430038  RH  097%=      5-min Rain = 0
KOD1 140826Z 14007KT 04/04 A3022 RMK A01 T00430038  RH  097%=      5-min Rain = 0
KOD1 140827Z 14007KT 04/04 A3022 RMK A01 T00430039  RH  097%=      5-min Rain = 0
KOD1 140828Z 14008KT 04/04 A3022 RMK A01 T00430039  RH  097%=      5-min Rain = 0
KOD1 140829Z 14007KT 04/04 A3022 RMK A01 T00440039  RH  097%=      5-min Rain = 0
KOD1 140830Z 14006KT 04/04 A3022 RMK A01 T00440039  RH  097%=      5-min Rain = 0
KOD1 140831Z 15009KT 04/04 A3022 RMK A01 T00440039  RH  097%=      5-min Rain = 0
KOD1 140832Z 15008KT 05/04 A3022 RMK A01 T00450040  RH  097%=      5-min Rain = 0
KOD1 140833Z 15008KT 05/04 A3022 RMK A01 T00450041  RH  097%=      5-min Rain = 0
KOD1 140834Z 15008KT 05/04 A3022 RMK A01 T00450041  RH  097%=      5-min Rain = 0
KOD1 140835Z 15008KT 05/04 A3022 RMK A01 T00460041  RH  097%=      5-min Rain = 0
KOD1 140836Z 15009KT 05/04 A3022 RMK A01 T00460042  RH  097%=      5-min Rain = 0
KOD1 140837Z 14008KT 05/04 A3022 RMK A01 T00470042  RH  097%=      5-min Rain = 0
KOD1 140838Z 15007KT 05/04 A3022 RMK A01 T00470042  RH  097%=      5-min Rain = 0
KOD1 140839Z 15008KT 05/04 A3022 RMK A01 T00470042  RH  097%=      5-min Rain = 0
KOD1 140840Z 15008KT 05/04 A3022 RMK A01 T00470042  RH  097%=      5-min Rain = 0
KOD1 140841Z 15008KT 05/04 A3022 RMK A01 T00470042  RH  097%=      5-min Rain = 0
KOD1 140842Z 15008KT 05/04 A3022 RMK A01 T00470042  RH  097%=      5-min Rain = 0
KOD1 140843Z 15007KT 05/04 A3022 RMK A01 T00470042  RH  097%=      5-min Rain = 0
KOD1 140844Z 15009KT 05/04 A3022 RMK A01 T00470042  RH  097%=      5-min Rain = 0
KOD1 140845Z 15009KT 05/04 A3022 RMK A01 T00470042  RH  097%=      5-min Rain = 0
KOD1 140846Z 14009KT 05/04 A3022 RMK A01 T00470042  RH  097%=      5-min Rain = 0
KOD1 140847Z 14008KT 05/04 A3022 RMK A01 T00470042  RH  097%=      5-min Rain = 0
KOD1 140848Z 14008KT 05/04 A3022 RMK A01 T00470042  RH  097%=      5-min Rain = 0
KOD1 140849Z 14007KT 05/04 A3022 RMK A01 T00470042  RH  096%=      5-min Rain = 0
KOD1 140850Z 14007KT 05/04 A3022 RMK A01 T00470042  RH  096%=      5-min Rain = 0
KOD1 140851Z 15007KT 05/04 A3021 RMK A01 T00470042  RH  096%=      5-min Rain = 0
KOD1 140852Z 14007KT 05/04 A3021 RMK A01 T00470042  RH  096%=      5-min Rain = 0
KOD1 140853Z 15008KT 05/04 A3021 RMK A01 T00470041  RH  096%=      5-min Rain = 0
KOD1 140854Z 14007KT 05/04 A3021 RMK A01 T00470042  RH  096%=      5-min Rain = 0
KOD1 140855Z 15007KT 05/04 A3021 RMK A01 T00470042  RH  096%=      5-min Rain = 0
KOD1 140856Z 14006KT 05/04 A3022 RMK A01 T00470042  RH  096%=      5-min Rain = 0
KOD1 140857Z 15007KT 05/04 A3022 RMK A01 T00470041  RH  096%=      5-min Rain = 0
KOD1 140858Z 15007KT 05/04 A3022 RMK A01 T00470042  RH  096%=      5-min Rain = 0
KOD1 140859Z 15005KT 05/04 A3022 RMK A01 T00470042  RH  096%=      5-min Rain = 0
KOD1 140900Z 15007KT 05/04 A3022 RMK A01 T00470042  RH  096%=      5-min Rain = 0
KOD1 140901Z 15008KT 05/04 A3022 RMK A01 T00470042  RH  096%=      5-min Rain = 0
KOD1 140902Z 15008KT 05/04 A3022 RMK A01 T00470042  RH  096%=      5-min Rain = 0
KOD1 140903Z 15008KT 05/04 A3021 RMK A01 T00470042  RH  096%=      5-min Rain = 0
KOD1 140904Z 15008KT 05/04 A3021 RMK A01 T00470042  RH  096%=      5-min Rain = 0
KOD1 140905Z 14007KT 05/04 A3021 RMK A01 T00470042  RH  096%=      5-min Rain = 0
KOD1 140906Z 15008KT 05/04 A3021 RMK A01 T00470042  RH  096%=      5-min Rain = 0
KOD1 140907Z 15008KT 05/04 A3021 RMK A01 T00470042  RH  096%=      5-min Rain = 0
KOD1 140908Z 15007KT 05/04 A3021 RMK A01 T00470041  RH  096%=      5-min Rain = 0
KOD1 140909Z 15008KT 05/04 A3021 RMK A01 T00470041  RH  096%=      5-min Rain = 0
KOD1 140910Z 15008KT 05/04 A3021 RMK A01 T00470041  RH  096%=      5-min Rain = 0
KOD1 140911Z 15008KT 05/04 A3021 RMK A01 T00470042  RH  096%=      5-min Rain = 0
KOD1 140912Z 15008KT 05/04 A3021 RMK A01 T00470042  RH  097%=      5-min Rain = 0
KOD1 140913Z 15007KT 05/04 A3021 RMK A01 T00470042  RH  096%=      5-min Rain = 0
KOD1 140914Z 15007KT 05/04 A3021 RMK A01 T00470042  RH  096%=      5-min Rain = 0
KOD1 140915Z 15006KT 05/04 A3021 RMK A01 T00470041  RH  096%=      5-min Rain = 0
KOD1 140916Z 15007KT 05/04 A3021 RMK A01 T00460041  RH  096%=      5-min Rain = 0
KOD1 140917Z 15008KT 05/04 A3021 RMK A01 T00460041  RH  096%=      5-min Rain = 0
KOD1 140918Z 15007KT 05/04 A302 RMK A01 T00460041  RH  096%=      5-min Rain = 0
KOD1 140919Z 15007KT 05/04 A302 RMK A01 T00460040  RH  096%=      5-min Rain = 0
KOD1 140920Z 15008KT 05/04 A3021 RMK A01 T00460040  RH  096%=      5-min Rain = 0
KOD1 140921Z 15008KT 05/04 A3021 RMK A01 T00460040  RH  096%=      5-min Rain = 0
KOD1 140922Z 15008KT 05/04 A3021 RMK A01 T00450040  RH  096%=      5-min Rain = 0
KOD1 140923Z 15008KT 05/04 A3021 RMK A01 T00450040  RH  096%=      5-min Rain = 0
KOD1 140924Z 15008KT 05/04 A3021 RMK A01 T00450039  RH  096%=      5-min Rain = 0
KOD1 140925Z 15008KT 05/04 A3021 RMK A01 T00450039  RH  096%=      5-min Rain = 0
KOD1 140926Z 15008KT 05/04 A3021 RMK A01 T00450039  RH  096%=      5-min Rain = 0
KOD1 140927Z 15008KT 04/04 A3021 RMK A01 T00440039  RH  096%=      5-min Rain = 0
KOD1 140928Z 15008KT 04/04 A3021 RMK A01 T00440039  RH  096%=      5-min Rain = 0
KOD1 140929Z 15008KT 04/04 A3021 RMK A01 T00440039  RH  096%=      5-min Rain = 0
KOD1 140930Z 15008KT 04/04 A3021 RMK A01 T00440039  RH  096%=      5-min Rain = 0
KOD1 140931Z 15008KT 04/04 A302 RMK A01 T00440039  RH  097%=      5-min Rain = 0
KOD1 140932Z 15008KT 04/04 A302 RMK A01 T00440039  RH  097%=      5-min Rain = 0
KOD1 140933Z 15008KT 04/04 A302 RMK A01 T00440039  RH  097%=      5-min Rain = 0
KOD1 140934Z 15008KT 04/04 A302 RMK A01 T00430038  RH  097%=      5-min Rain = 0
KOD1 140935Z 15008KT 04/04 A302 RMK A01 T00430038  RH  097%=      5-min Rain = 0
KOD1 140936Z 15008KT 04/04 A302 RMK A01 T00430038  RH  097%=      5-min Rain = 0
KOD1 140937Z 15009KT 04/04 A302 RMK A01 T00430039  RH  097%=      5-min Rain = 0
KOD1 140938Z 14009KT 04/04 A302 RMK A01 T00440040  RH  097%=      5-min Rain = 0
KOD1 140939Z 15009KT 04/04 A302 RMK A01 T00440040  RH  097%=      5-min Rain = 0
KOD1 140940Z 15008KT 05/04 A302 RMK A01 T00450040  RH  097%=      5-min Rain = 0
KOD1 140941Z 15008KT 05/04 A302 RMK A01 T00450040  RH  097%=      5-min Rain = 0
KOD1 140942Z 14007KT 05/04 A302 RMK A01 T00450040  RH  097%=      5-min Rain = 0
KOD1 140943Z 15007KT 05/04 A302 RMK A01 T00450040  RH  097%=      5-min Rain = 0
KOD1 140944Z 15008KT 05/04 A302 RMK A01 T00450041  RH  097%=      5-min Rain = 0
KOD1 140945Z 15008KT 05/04 A302 RMK A01 T00450041  RH  097%=      5-min Rain = 0
KOD1 140946Z 14007KT 05/04 A302 RMK A01 T00450041  RH  097%=      5-min Rain = 0
KOD1 140947Z 15008KT 05/04 A302 RMK A01 T00450041  RH  097%=      5-min Rain = 0
KOD1 140948Z 15008KT 05/04 A302 RMK A01 T00450041  RH  097%=      5-min Rain = 0
KOD1 140949Z 15008KT 05/04 A302 RMK A01 T00450041  RH  097%=      5-min Rain = 0
KOD1 140950Z 15008KT 05/04 A302 RMK A01 T00450041  RH  097%=      5-min Rain = 0
KOD1 140951Z 15009KT 05/04 A302 RMK A01 T00450041  RH  097%=      5-min Rain = 0
KOD1 140952Z 15008KT 05/04 A302 RMK A01 T00450041  RH  097%=      5-min Rain = 0
KOD1 140953Z 15009KT 05/04 A302 RMK A01 T00450041  RH  097%=      5-min Rain = 0
KOD1 140954Z 15009KT 05/04 A302 RMK A01 T00450041  RH  097%=      5-min Rain = 0
KOD1 140955Z 15009KT 05/04 A302 RMK A01 T00450041  RH  097%=      5-min Rain = 0
KOD1 140956Z 15009KT 05/04 A302 RMK A01 T00450041  RH  097%=      5-min Rain = 0
KOD1 140957Z 15008KT 05/04 A302 RMK A01 T00450041  RH  097%=      5-min Rain = 0
KOD1 140958Z 15008KT 05/04 A302 RMK A01 T00450041  RH  097%=      5-min Rain = 0
KOD1 140959Z 15008KT 05/04 A302 RMK A01 T00450041  RH  097%=      5-min Rain = 0
KOD1 141000Z 15007KT 05/04 A302 RMK A01 T00450041  RH  097%=      5-min Rain = 0
KOD1 141001Z 14008KT 05/04 A302 RMK A01 T00450041  RH  097%=      5-min Rain = 0
KOD1 141002Z 15008KT 05/04 A302 RMK A01 T00450041  RH  097%=      5-min Rain = 0
KOD1 141003Z 15008KT 05/04 A302 RMK A01 T00460041  RH  097%=      5-min Rain = 0
KOD1 141004Z 14008KT 05/04 A302 RMK A01 T00460041  RH  097%=      5-min Rain = 0
KOD1 141005Z 15008KT 05/04 A302 RMK A01 T00460041  RH  097%=      5-min Rain = 0
KOD1 141006Z 15008KT 05/04 A302 RMK A01 T00460041  RH  097%=      5-min Rain = 0
KOD1 141007Z 15009KT 05/04 A302 RMK A01 T00460042  RH  097%=      5-min Rain = 0
KOD1 141008Z 15008KT 05/04 A302 RMK A01 T00460042  RH  097%=      5-min Rain = 0
KOD1 141009Z 15008KT 05/04 A302 RMK A01 T00460041  RH  097%=      5-min Rain = 0
KOD1 141010Z 15009KT 05/04 A302 RMK A01 T00460041  RH  097%=      5-min Rain = 0
KOD1 141011Z 14008KT 05/04 A302 RMK A01 T00460041  RH  097%=      5-min Rain = 0
KOD1 141012Z 14008KT 05/04 A302 RMK A01 T00460041  RH  097%=      5-min Rain = 0
KOD1 141013Z 14008KT 05/04 A302 RMK A01 T00460041  RH  097%=      5-min Rain = 0
KOD1 141014Z 14007KT 05/04 A302 RMK A01 T00460042  RH  097%=      5-min Rain = 0
KOD1 141015Z 14006KT 05/04 A302 RMK A01 T00460042  RH  097%=      5-min Rain = 0
KOD1 141016Z 13006KT 05/04 A302 RMK A01 T00460041  RH  097%=      5-min Rain = 0
KOD1 141017Z 14006KT 05/04 A3019 RMK A01 T00450040  RH  097%=      5-min Rain = 0
KOD1 141018Z 13005KT 04/04 A3019 RMK A01 T00440040  RH  097%=      5-min Rain = 0
KOD1 141019Z 13006KT 04/04 A3019 RMK A01 T00440039  RH  097%=      5-min Rain = 0
KOD1 141020Z 13007KT 04/04 A3019 RMK A01 T00440039  RH  097%=      5-min Rain = 0
KOD1 141021Z 13007KT 04/04 A3019 RMK A01 T00430039  RH  097%=      5-min Rain = 0
KOD1 141022Z 13006KT 04/04 A3019 RMK A01 T00430038  RH  097%=      5-min Rain = 0
KOD1 141023Z 13006KT 04/04 A3019 RMK A01 T00430038  RH  097%=      5-min Rain = 0
KOD1 141024Z 14007KT 04/04 A3019 RMK A01 T00420038  RH  097%=      5-min Rain = 0
KOD1 141025Z 13007KT 04/04 A3019 RMK A01 T00420038  RH  097%=      5-min Rain = 0
KOD1 141026Z 13008KT 04/04 A3019 RMK A01 T00420038  RH  097%=      5-min Rain = 0
KOD1 141027Z 13008KT 04/04 A3019 RMK A01 T00420038  RH  097%=      5-min Rain = 0
KOD1 141028Z 13008KT 04/04 A3019 RMK A01 T00420037  RH  097%=      5-min Rain = 0
KOD1 141029Z 14008KT 04/04 A3019 RMK A01 T00410037  RH  097%=      5-min Rain = 0
KOD1 141030Z 13007KT 04/04 A3019 RMK A01 T00410037  RH  097%=      5-min Rain = 0
KOD1 141031Z 14007KT 04/04 A3019 RMK A01 T00410037  RH  097%=      5-min Rain = 0
KOD1 141032Z 14007KT 04/04 A3019 RMK A01 T00410036  RH  097%=      5-min Rain = 0
KOD1 141033Z 14007KT 04/04 A3019 RMK A01 T00400036  RH  097%=      5-min Rain = 0
KOD1 141034Z 14007KT 04/04 A3019 RMK A01 T00400036  RH  097%=      5-min Rain = 0
KOD1 141035Z 13006KT 04/04 A3019 RMK A01 T00400036  RH  097%=      5-min Rain = 0
KOD1 141036Z 14006KT 04/04 A3019 RMK A01 T00400035  RH  097%=      5-min Rain = 0
KOD1 141037Z 13006KT 04/04 A3019 RMK A01 T00390035  RH  097%=      5-min Rain = 0
KOD1 141038Z 13006KT 04/04 A3019 RMK A01 T00390035  RH  097%=      5-min Rain = 0
KOD1 141039Z 13005KT 04/03 A3019 RMK A01 T00380034  RH  097%=      5-min Rain = 0
KOD1 141040Z 13005KT 04/03 A3019 RMK A01 T00380033  RH  097%=      5-min Rain = 0
KOD1 141041Z 13005KT 04/03 A3019 RMK A01 T00370033  RH  097%=      5-min Rain = 0
KOD1 141042Z 13005KT 04/03 A3019 RMK A01 T00370033  RH  097%=      5-min Rain = 0
KOD1 141043Z 13005KT 04/03 A3019 RMK A01 T00370033  RH  097%=      5-min Rain = 0
KOD1 141044Z 13004KT 04/03 A3019 RMK A01 T00370033  RH  097%=      5-min Rain = 0
KOD1 141045Z 13004KT 04/03 A3019 RMK A01 T00360032  RH  097%=      5-min Rain = 0
KOD1 141046Z 13005KT 04/03 A3019 RMK A01 T00370033  RH  097%=      5-min Rain = 0
KOD1 141047Z 14004KT 04/03 A3019 RMK A01 T00370033  RH  098%=      5-min Rain = 0
KOD1 141048Z 14005KT 04/03 A3019 RMK A01 T00370033  RH  098%=      5-min Rain = 0
KOD1 141049Z 13005KT 04/03 A3019 RMK A01 T00360033  RH  097%=      5-min Rain = 0
KOD1 141050Z 14006KT 04/03 A3019 RMK A01 T00360032  RH  098%=      5-min Rain = 0
KOD1 141051Z 13005KT 04/03 A3019 RMK A01 T00360033  RH  098%=      5-min Rain = 0
KOD1 141052Z 13005KT 04/03 A3019 RMK A01 T00360032  RH  098%=      5-min Rain = 0
KOD1 141053Z 14005KT 04/03 A3019 RMK A01 T00350032  RH  098%=      5-min Rain = 0
KOD1 141054Z 14006KT 04/03 A3019 RMK A01 T00350031  RH  097%=      5-min Rain = 0
KOD1 141055Z 14006KT 03/03 A3019 RMK A01 T00340030  RH  097%=      5-min Rain = 0
KOD1 141056Z 14007KT 03/03 A3019 RMK A01 T00340031  RH  098%=      5-min Rain = 0
KOD1 141057Z 14007KT 03/03 A3019 RMK A01 T00340031  RH  098%=      5-min Rain = 0
KOD1 141058Z 14007KT 03/03 A3019 RMK A01 T00340031  RH  098%=      5-min Rain = 0
KOD1 141059Z 14008KT 03/03 A3019 RMK A01 T00340031  RH  098%=      5-min Rain = 0
KOD1 141100Z 15008KT 04/03 A3019 RMK A01 T00350032  RH  098%=      5-min Rain = 0
KOD1 141101Z 15009KT 04/03 A3019 RMK A01 T00360033  RH  098%=      5-min Rain = 0
KOD1 141102Z 15010KT 04/03 A3019 RMK A01 T00360033  RH  098%=      5-min Rain = 0
KOD1 141103Z 15010KT 04/03 A3019 RMK A01 T00360034  RH  098%=      5-min Rain = 0
KOD1 141104Z 15010KT 04/03 A3019 RMK A01 T00370034  RH  098%=      5-min Rain = 0
KOD1 141105Z 15010KT 04/03 A3019 RMK A01 T00370034  RH  098%=      5-min Rain = 0
KOD1 141106Z 15011KT 04/03 A3019 RMK A01 T00370034  RH  098%=      5-min Rain = 0
KOD1 141107Z 15011KT 04/04 A3019 RMK A01 T00370035  RH  098%=      5-min Rain = 0
KOD1 141108Z 15010KT 04/03 A3019 RMK A01 T00370034  RH  098%=      5-min Rain = 0
KOD1 141109Z 15010KT 04/03 A3019 RMK A01 T00370034  RH  098%=      5-min Rain = 0
KOD1 141110Z 15009KT 04/03 A3019 RMK A01 T00370034  RH  098%=      5-min Rain = 0
KOD1 141111Z 15009KT 04/03 A3019 RMK A01 T00370034  RH  098%=      5-min Rain = 0
KOD1 141112Z 15009KT 04/03 A3019 RMK A01 T00370034  RH  098%=      5-min Rain = 0
KOD1 141113Z 14009KT 04/03 A3019 RMK A01 T00370034  RH  098%=      5-min Rain = 0
KOD1 141114Z 14008KT 04/03 A3019 RMK A01 T00370034  RH  098%=      5-min Rain = 0
KOD1 141115Z 14008KT 04/03 A3019 RMK A01 T00370034  RH  098%=      5-min Rain = 0
KOD1 141116Z 14008KT 04/03 A3019 RMK A01 T00370034  RH  098%=      5-min Rain = 0
KOD1 141117Z 14009KT 04/04 A3019 RMK A01 T00370035  RH  098%=      5-min Rain = 0
KOD1 141118Z 14008KT 04/04 A3019 RMK A01 T00380035  RH  098%=      5-min Rain = 0
KOD1 141119Z 14008KT 04/04 A3019 RMK A01 T00380036  RH  099%=      5-min Rain = 0
KOD1 141120Z 14007KT 04/04 A3019 RMK A01 T00380036  RH  099%=      5-min Rain = 0
KOD1 141121Z 14008KT 04/04 A3019 RMK A01 T00390037  RH  099%=      5-min Rain = 0
KOD1 141122Z 14008KT 04/04 A3019 RMK A01 T00390037  RH  099%=      5-min Rain = 0
KOD1 141123Z 14008KT 04/04 A3019 RMK A01 T00390037  RH  099%=      5-min Rain = 0
KOD1 141124Z 14008KT 04/04 A3019 RMK A01 T00390036  RH  098%=      5-min Rain = 0
KOD1 141125Z 14009KT 04/04 A3019 RMK A01 T00380036  RH  098%=      5-min Rain = 0
KOD1 141126Z 14008KT 04/04 A3019 RMK A01 T00380036  RH  099%=      5-min Rain = 0
KOD1 141127Z 14008KT 04/04 A3019 RMK A01 T00380036  RH  099%=      5-min Rain = 0
KOD1 141128Z 14008KT 04/04 A3019 RMK A01 T00390037  RH  099%=      5-min Rain = 0
KOD1 141129Z 14007KT 04/04 A3018 RMK A01 T00390037  RH  099%=      5-min Rain = 0
KOD1 141130Z 14006KT 04/04 A3018 RMK A01 T00390037  RH  099%=      5-min Rain = 0
KOD1 141131Z 14007KT 04/04 A3019 RMK A01 T00390037  RH  099%=      5-min Rain = 0
KOD1 141132Z 14008KT 04/04 A3019 RMK A01 T00390037  RH  099%=      5-min Rain = 0
KOD1 141133Z 15008KT 04/04 A3019 RMK A01 T00390037  RH  099%=      5-min Rain = 0
KOD1 141134Z 15008KT 04/04 A3018 RMK A01 T00390037  RH  099%=      5-min Rain = 0
KOD1 141135Z 15008KT 04/04 A3018 RMK A01 T00390036  RH  099%=      5-min Rain = 0
KOD1 141136Z 15009KT 04/04 A3018 RMK A01 T00380036  RH  099%=      5-min Rain = 0
KOD1 141137Z 15009KT 04/04 A3018 RMK A01 T00380036  RH  099%=      5-min Rain = 0
KOD1 141138Z 15008KT 04/04 A3018 RMK A01 T00380035  RH  099%=      5-min Rain = 0
KOD1 141139Z 15009KT 04/04 A3018 RMK A01 T00370035  RH  099%=      5-min Rain = 0
KOD1 141140Z 15008KT 04/04 A3018 RMK A01 T00370035  RH  099%=      5-min Rain = 0
KOD1 141141Z 15008KT 04/04 A3019 RMK A01 T00370035  RH  099%=      5-min Rain = 0
KOD1 141142Z 15008KT 04/03 A3019 RMK A01 T00370034  RH  099%=      5-min Rain = 0
KOD1 141143Z 15008KT 04/03 A3019 RMK A01 T00360034  RH  099%=      5-min Rain = 0
KOD1 141144Z 15008KT 04/03 A3019 RMK A01 T00360034  RH  099%=      5-min Rain = 0
KOD1 141145Z 15008KT 04/03 A3019 RMK A01 T00360034  RH  099%=      5-min Rain = 0
KOD1 141146Z 15007KT 04/03 A3019 RMK A01 T00360034  RH  099%=      5-min Rain = 0
KOD1 141147Z 15007KT 04/03 A3019 RMK A01 T00360034  RH  099%=      5-min Rain = 0
KOD1 141148Z 14008KT 04/03 A3019 RMK A01 T00350033  RH  099%=      5-min Rain = 0
KOD1 141149Z 15007KT 04/03 A3019 RMK A01 T00350033  RH  099%=      5-min Rain = 0
KOD1 141150Z 15007KT 04/03 A3019 RMK A01 T00350033  RH  099%=      5-min Rain = 0
KOD1 141151Z 15008KT 04/03 A3019 RMK A01 T00350034  RH  099%=      5-min Rain = 0
KOD1 141152Z 14007KT 04/03 A3019 RMK A01 T00360034  RH  099%=      5-min Rain = 0
KOD1 141153Z 14007KT 04/03 A3019 RMK A01 T00360034  RH  099%=      5-min Rain = 0
KOD1 141154Z 14007KT 04/03 A3019 RMK A01 T00360034  RH  099%=      5-min Rain = 0
KOD1 141155Z 14007KT 04/04 A3019 RMK A01 T00360035  RH  099%=      5-min Rain = 0
KOD1 141156Z 14007KT 04/04 A3019 RMK A01 T00370036  RH  099%=      5-min Rain = 0
KOD1 141157Z 14007KT 04/04 A3019 RMK A01 T00370036  RH  100%=      5-min Rain = 0
KOD1 141158Z 14007KT 04/04 A3019 RMK A01 T00380037  RH  100%=      5-min Rain = 0
KOD1 141159Z 14007KT 04/04 A3019 RMK A01 T00380038  RH  100%=      5-min Rain = 0
KOD1 141200Z 14007KT 04/04 A3019 RMK A01 T00390039  RH  100%=      5-min Rain = 0
KOD1 141201Z 14006KT 04/04 A3018 RMK A01 T00390039  RH  100%=      5-min Rain = 0
KOD1 141202Z 13006KT 04/04 A3018 RMK A01 T00400040  RH  100%=      5-min Rain = 0
KOD1 141203Z 13005KT 04/04 A3018 RMK A01 T00400040  RH  100%=      5-min Rain = 0
KOD1 141204Z 14005KT 04/04 A3019 RMK A01 T00400040  RH  100%=      5-min Rain = 0
KOD1 141205Z 14006KT 04/04 A3019 RMK A01 T00410041  RH  100%=      5-min Rain = 0
KOD1 141206Z 14006KT 04/04 A3019 RMK A01 T00410041  RH  100%=      5-min Rain = 0
KOD1 141207Z 14007KT 04/04 A3019 RMK A01 T00410041  RH  100%=      5-min Rain = 0
KOD1 141208Z 14007KT 04/04 A3019 RMK A01 T00410041  RH  100%=      5-min Rain = 0
KOD1 141209Z 14007KT 04/04 A3019 RMK A01 T00410041  RH  100%=      5-min Rain = 0
KOD1 141210Z 14006KT 04/04 A3019 RMK A01 T00410041  RH  100%=      5-min Rain = 0
KOD1 141211Z 14006KT 04/04 A3018 RMK A01 T00410041  RH  100%=      5-min Rain = 0
KOD1 141212Z 13007KT 04/04 A3018 RMK A01 T00410041  RH  100%=      5-min Rain = 0
KOD1 141213Z 13007KT 04/04 A3018 RMK A01 T00410041  RH  100%=      5-min Rain = 0
KOD1 141214Z 14007KT 04/04 A3018 RMK A01 T00410041  RH  100%=      5-min Rain = 0
KOD1 141215Z 14007KT 04/04 A3018 RMK A01 T00410041  RH  100%=      5-min Rain = 0
KOD1 141216Z 13007KT 04/04 A3018 RMK A01 T00400040  RH  100%=      5-min Rain = 0
KOD1 141217Z 14007KT 04/04 A3018 RMK A01 T00400040  RH  100%=      5-min Rain = 0
KOD1 141218Z 14007KT 04/04 A3018 RMK A01 T00400040  RH  100%=      5-min Rain = 0
KOD1 141219Z 13007KT 04/04 A3018 RMK A01 T00400039  RH  100%=      5-min Rain = 0
KOD1 141220Z 13006KT 04/04 A3018 RMK A01 T00390038  RH  100%=      5-min Rain = 0
KOD1 141221Z 14007KT 04/04 A3018 RMK A01 T00380038  RH  100%=      5-min Rain = 0
KOD1 141222Z 14006KT 04/04 A3018 RMK A01 T00380038  RH  100%=      5-min Rain = 0
KOD1 141223Z 14006KT 04/04 A3019 RMK A01 T00380037  RH  100%=      5-min Rain = 0
KOD1 141224Z 14007KT 04/04 A3018 RMK A01 T00370037  RH  100%=      5-min Rain = 0
KOD1 141225Z 15006KT 04/04 A3018 RMK A01 T00370037  RH  100%=      5-min Rain = 0
KOD1 141226Z 15008KT 04/04 A3018 RMK A01 T00370036  RH  100%=      5-min Rain = 0
KOD1 141227Z 15009KT 04/04 A3018 RMK A01 T00370037  RH  100%=      5-min Rain = 0
KOD1 141228Z 15009KT 04/04 A3019 RMK A01 T00370037  RH  100%=      5-min Rain = 0
KOD1 141229Z 15009KT 04/04 A3019 RMK A01 T00370037  RH  100%=      5-min Rain = 0
KOD1 141230Z 15009KT 04/04 A3019 RMK A01 T00370037  RH  100%=      5-min Rain = 0
KOD1 141231Z 15009KT 04/04 A3019 RMK A01 T00370036  RH  100%=      5-min Rain = 0
KOD1 141232Z 15008KT 04/04 A3019 RMK A01 T00360036  RH  100%=      5-min Rain = 0
KOD1 141233Z 15008KT 04/04 A3019 RMK A01 T00360035  RH  100%=      5-min Rain = 0
KOD1 141234Z 14008KT 04/04 A3019 RMK A01 T00360035  RH  100%=      5-min Rain = 0
KOD1 141235Z 14008KT 04/04 A3019 RMK A01 T00360035  RH  100%=      5-min Rain = 0
KOD1 141236Z 14007KT 04/04 A3019 RMK A01 T00350035  RH  100%=      5-min Rain = 0
KOD1 141237Z 15007KT 04/04 A3019 RMK A01 T00350035  RH  100%=      5-min Rain = 0
KOD1 141238Z 15008KT 04/04 A3019 RMK A01 T00350035  RH  100%=      5-min Rain = 0
KOD1 141239Z 15008KT 04/03 A3019 RMK A01 T00350034  RH  100%=      5-min Rain = 0
KOD1 141240Z 15008KT 03/03 A3019 RMK A01 T00340034  RH  100%=      5-min Rain = 0
KOD1 141241Z 15007KT 03/03 A3019 RMK A01 T00340034  RH  100%=      5-min Rain = 0
KOD1 141242Z 15007KT 03/03 A3019 RMK A01 T00340034  RH  100%=      5-min Rain = 0
KOD1 141243Z 15007KT 03/03 A3019 RMK A01 T00330033  RH  100%=      5-min Rain = 0
KOD1 141244Z 15007KT 03/03 A3019 RMK A01 T00330032  RH  100%=      5-min Rain = 0
KOD1 141245Z 15007KT 03/03 A3019 RMK A01 T00320032  RH  100%=      5-min Rain = 0
KOD1 141246Z 15007KT 03/03 A3019 RMK A01 T00320031  RH  100%=      5-min Rain = 0
KOD1 141247Z 15007KT 03/03 A3019 RMK A01 T00310031  RH  100%=      5-min Rain = 0
KOD1 141248Z 15007KT 03/03 A3019 RMK A01 T00310031  RH  100%=      5-min Rain = 0
KOD1 141249Z 15007KT 03/03 A3019 RMK A01 T00310031  RH  100%=      5-min Rain = 0
KOD1 141250Z 15007KT 03/03 A3019 RMK A01 T00310031  RH  100%=      5-min Rain = 0
KOD1 141251Z 15007KT 03/03 A3019 RMK A01 T00310031  RH  100%=      5-min Rain = 0
KOD1 141252Z 15007KT 03/03 A3019 RMK A01 T00310031  RH  100%=      5-min Rain = 0
KOD1 141253Z 15006KT 03/03 A3019 RMK A01 T00310031  RH  100%=      5-min Rain = 0
KOD1 141254Z 15007KT 03/03 A3019 RMK A01 T00310031  RH  100%=      5-min Rain = 0
KOD1 141255Z 15007KT 03/03 A3019 RMK A01 T00320032  RH  100%=      5-min Rain = 0
KOD1 141256Z 15007KT 03/03 A3019 RMK A01 T00320032  RH  100%=      5-min Rain = 0
KOD1 141257Z 14007KT 03/03 A3019 RMK A01 T00320032  RH  100%=      5-min Rain = 0
KOD1 141258Z 15008KT 03/03 A3019 RMK A01 T00320032  RH  100%=      5-min Rain = 0
KOD1 141259Z 15007KT 03/03 A3019 RMK A01 T00320032  RH  100%=      5-min Rain = 0
KOD1 141300Z 15007KT 03/03 A3019 RMK A01 T00320032  RH  100%=      5-min Rain = 0
KOD1 141301Z 15007KT 03/03 A3019 RMK A01 T00320032  RH  100%=      5-min Rain = 0
KOD1 141302Z 15007KT 03/03 A3019 RMK A01 T00310032  RH  100%=      5-min Rain = 0
KOD1 141303Z 15006KT 03/03 A3019 RMK A01 T00310031  RH  100%=      5-min Rain = 0
KOD1 141304Z 15007KT 03/03 A3019 RMK A01 T00310031  RH  100%=      5-min Rain = 0
KOD1 141305Z 15006KT 03/03 A3019 RMK A01 T00300030  RH  100%=      5-min Rain = 0
KOD1 141306Z 15006KT 03/03 A3019 RMK A01 T00300030  RH  100%=      5-min Rain = 0
KOD1 141307Z 15006KT 03/03 A3019 RMK A01 T00300030  RH  100%=      5-min Rain = 0
KOD1 141308Z 15006KT 03/03 A3019 RMK A01 T00300030  RH  100%=      5-min Rain = 0
KOD1 141309Z 15007KT 03/03 A3019 RMK A01 T00300030  RH  100%=      5-min Rain = 0
KOD1 141310Z 15005KT 03/03 A3019 RMK A01 T00300030  RH  100%=      5-min Rain = 0
KOD1 141311Z 14006KT 03/03 A3019 RMK A01 T00300030  RH  100%=      5-min Rain = 0
KOD1 141312Z 15006KT 03/03 A3019 RMK A01 T00300030  RH  100%=      5-min Rain = 0
KOD1 141313Z 15005KT 03/03 A3019 RMK A01 T00300030  RH  100%=      5-min Rain = 0
KOD1 141314Z 15005KT 03/03 A3019 RMK A01 T00300030  RH  100%=      5-min Rain = 0
KOD1 141315Z 15005KT 03/03 A3019 RMK A01 T00300030  RH  100%=      5-min Rain = 0
KOD1 141316Z 15005KT 03/03 A3019 RMK A01 T00290029  RH  100%=      5-min Rain = 0
KOD1 141317Z 15005KT 03/03 A3019 RMK A01 T00290029  RH  100%=      5-min Rain = 0
KOD1 141318Z 15004KT 03/03 A3019 RMK A01 T00290029  RH  100%=      5-min Rain = 0
KOD1 141319Z 15005KT 03/03 A3019 RMK A01 T00290029  RH  100%=      5-min Rain = 0
KOD1 141320Z 16006KT 03/03 A3019 RMK A01 T00280028  RH  100%=      5-min Rain = 0
KOD1 141321Z 15006KT 03/03 A3019 RMK A01 T00280028  RH  100%=      5-min Rain = 0
KOD1 141322Z 15006KT 03/03 A3019 RMK A01 T00270027  RH  100%=      5-min Rain = 0
KOD1 141323Z 15006KT 03/03 A3018 RMK A01 T00270027  RH  100%=      5-min Rain = 0
KOD1 141324Z 15007KT 03/03 A3018 RMK A01 T00270027  RH  100%=      5-min Rain = 0
KOD1 141325Z 15008KT 03/03 A3018 RMK A01 T00260026  RH  100%=      5-min Rain = 0
KOD1 141326Z 15009KT 03/03 A3018 RMK A01 T00260026  RH  100%=      5-min Rain = 0
KOD1 141327Z 15009KT 03/03 A3018 RMK A01 T00270027  RH  100%=      5-min Rain = 0
KOD1 141328Z 15009KT 03/03 A3019 RMK A01 T00270027  RH  100%=      5-min Rain = 0
KOD1 141329Z 15009KT 03/03 A3019 RMK A01 T00270027  RH  100%=      5-min Rain = 0
KOD1 141330Z 15008KT 03/03 A3018 RMK A01 T00270027  RH  100%=      5-min Rain = 0
KOD1 141331Z 15008KT 03/03 A3018 RMK A01 T00270027  RH  100%=      5-min Rain = 0
KOD1 141332Z 15008KT 03/03 A3018 RMK A01 T00270027  RH  100%=      5-min Rain = 0
KOD1 141333Z 15008KT 03/03 A3018 RMK A01 T00270027  RH  100%=      5-min Rain = 0
KOD1 141334Z 15007KT 03/03 A3018 RMK A01 T00270027  RH  100%=      5-min Rain = 0
KOD1 141335Z 15008KT 03/03 A3018 RMK A01 T00270027  RH  100%=      5-min Rain = 0
KOD1 141336Z 15008KT 03/03 A3018 RMK A01 T00280028  RH  100%=      5-min Rain = 0
KOD1 141337Z 15009KT 03/03 A3019 RMK A01 T00280028  RH  100%=      5-min Rain = 0
KOD1 141338Z 15009KT 03/03 A3019 RMK A01 T00280028  RH  100%=      5-min Rain = 0
KOD1 141339Z 16009KT 03/03 A3019 RMK A01 T00290029  RH  100%=      5-min Rain = 0
KOD1 141340Z 16008KT 03/03 A3019 RMK A01 T00290029  RH  100%=      5-min Rain = 0
KOD1 141341Z 15007KT 03/03 A3019 RMK A01 T00300030  RH  100%=      5-min Rain = 0
KOD1 141342Z 16008KT 03/03 A3019 RMK A01 T00300030  RH  100%=      5-min Rain = 0
KOD1 141343Z 15008KT 03/03 A3019 RMK A01 T00300030  RH  100%=      5-min Rain = 0
KOD1 141344Z 15007KT 03/03 A3019 RMK A01 T00300030  RH  100%=      5-min Rain = 0
KOD1 141345Z 16007KT 03/03 A3019 RMK A01 T00300030  RH  100%=      5-min Rain = 0
KOD1 141346Z 16007KT 03/03 A3019 RMK A01 T00290029  RH  100%=      5-min Rain = 0
KOD1 141347Z 16007KT 03/03 A3019 RMK A01 T00290029  RH  100%=      5-min Rain = 0
KOD1 141348Z 16006KT 03/03 A3019 RMK A01 T00290029  RH  100%=      5-min Rain = 0
KOD1 141349Z 15006KT 03/03 A3019 RMK A01 T00290029  RH  100%=      5-min Rain = 0
KOD1 141350Z 16006KT 03/03 A3019 RMK A01 T00290029  RH  100%=      5-min Rain = 0
KOD1 141351Z 16006KT 03/03 A3019 RMK A01 T00290029  RH  100%=      5-min Rain = 0
KOD1 141352Z 16006KT 03/03 A3019 RMK A01 T00290029  RH  100%=      5-min Rain = 0
KOD1 141353Z 16007KT 03/03 A3019 RMK A01 T00290029  RH  100%=      5-min Rain = 0
KOD1 141354Z 16007KT 03/03 A3019 RMK A01 T00290029  RH  100%=      5-min Rain = 0
KOD1 141355Z 16007KT 03/03 A3019 RMK A01 T00300030  RH  100%=      5-min Rain = 0
KOD1 141356Z 16007KT 03/03 A3019 RMK A01 T00300030  RH  100%=      5-min Rain = 0
KOD1 141357Z 15007KT 03/03 A3018 RMK A01 T00310031  RH  100%=      5-min Rain = 0
KOD1 141358Z 16007KT 03/03 A3018 RMK A01 T00310031  RH  100%=      5-min Rain = 0
KOD1 141359Z 16008KT 03/03 A3018 RMK A01 T00310031  RH  100%=      5-min Rain = 0
KOD1 141400Z 16008KT 03/03 A3018 RMK A01 T00320032  RH  100%=      5-min Rain = 0
KOD1 141401Z 16008KT 03/03 A3018 RMK A01 T00320032  RH  100%=      5-min Rain = 0
KOD1 141402Z 16008KT 03/03 A3018 RMK A01 T00330033  RH  100%=      5-min Rain = 0
KOD1 141403Z 16008KT 03/03 A3018 RMK A01 T00330033  RH  100%=      5-min Rain = 0
KOD1 141404Z 16008KT 03/03 A3018 RMK A01 T00340034  RH  100%=      5-min Rain = 0
KOD1 141405Z 16007KT 03/04 A3018 RMK A01 T00340035  RH  100%=      5-min Rain = 0
KOD1 141406Z 16007KT 04/04 A3018 RMK A01 T00350035  RH  100%=      5-min Rain = 0
KOD1 141407Z 16007KT 04/04 A3018 RMK A01 T00350035  RH  100%=      5-min Rain = 0
KOD1 141408Z 16007KT 04/04 A3018 RMK A01 T00360036  RH  100%=      5-min Rain = 0
KOD1 141409Z 15007KT 04/04 A3018 RMK A01 T00360036  RH  100%=      5-min Rain = 0
KOD1 141410Z 15007KT 04/04 A3018 RMK A01 T00370037  RH  100%=      5-min Rain = 0
KOD1 141411Z 15008KT 04/04 A3018 RMK A01 T00370037  RH  100%=      5-min Rain = 0
KOD1 141412Z 16008KT 04/04 A3018 RMK A01 T00380038  RH  100%=      5-min Rain = 0
KOD1 141413Z 16009KT 04/04 A3018 RMK A01 T00380038  RH  100%=      5-min Rain = 0
KOD1 141414Z 16009KT 04/04 A3018 RMK A01 T00390039  RH  100%=      5-min Rain = 0
KOD1 141415Z 16008KT 04/04 A3018 RMK A01 T00400040  RH  100%=      5-min Rain = 0
KOD1 141416Z 16007KT 04/04 A3018 RMK A01 T00410041  RH  100%=      5-min Rain = 0
KOD1 141417Z 16007KT 04/04 A3018 RMK A01 T00410041  RH  100%=      5-min Rain = 0
KOD1 141418Z 16006KT 04/04 A3018 RMK A01 T00420042  RH  100%=      5-min Rain = 0
KOD1 141419Z 16006KT 04/04 A3018 RMK A01 T00440044  RH  100%=      5-min Rain = 0
KOD1 141420Z 16007KT 05/05 A3018 RMK A01 T00450045  RH  100%=      5-min Rain = 0
KOD1 141421Z 16007KT 05/05 A3018 RMK A01 T00460047  RH  100%=      5-min Rain = 0
KOD1 141422Z 16008KT 05/05 A3018 RMK A01 T00480048  RH  100%=      5-min Rain = 0
KOD1 141423Z 16009KT 05/05 A3018 RMK A01 T00490049  RH  100%=      5-min Rain = 0
KOD1 141424Z 16010KT 05/05 A3018 RMK A01 T00490049  RH  100%=      5-min Rain = 0
KOD1 141425Z 16009KT 05/05 A3017 RMK A01 T00500050  RH  100%=      5-min Rain = 0
KOD1 141426Z 16010KT 05/05 A3017 RMK A01 T00510051  RH  100%=      5-min Rain = 0
KOD1 141427Z 16010KT 05/05 A3017 RMK A01 T00510051  RH  100%=      5-min Rain = 0
KOD1 141428Z 16009KT 05/05 A3017 RMK A01 T00510051  RH  100%=      5-min Rain = 0
KOD1 141429Z 16009KT 05/05 A3017 RMK A01 T00520052  RH  100%=      5-min Rain = 0
KOD1 141430Z 16009KT 05/05 A3017 RMK A01 T00520052  RH  100%=      5-min Rain = 0
KOD1 141431Z 16008KT 05/05 A3017 RMK A01 T00520052  RH  100%=      5-min Rain = 0
KOD1 141432Z 16009KT 05/05 A3017 RMK A01 T00530053  RH  100%=      5-min Rain = 0
KOD1 141433Z 16009KT 05/05 A3017 RMK A01 T00530053  RH  100%=      5-min Rain = 0
KOD1 141434Z 16009KT 05/05 A3017 RMK A01 T00540054  RH  100%=      5-min Rain = 0
KOD1 141435Z 16009KT 05/05 A3017 RMK A01 T00540054  RH  100%=      5-min Rain = 0
KOD1 141436Z 16009KT 06/06 A3017 RMK A01 T00550055  RH  100%=      5-min Rain = 0
KOD1 141437Z 16009KT 06/06 A3017 RMK A01 T00560056  RH  100%=      5-min Rain = 0
KOD1 141438Z 17009KT 06/06 A3017 RMK A01 T00570057  RH  100%=      5-min Rain = 0
KOD1 141439Z 17009KT 06/06 A3017 RMK A01 T00580058  RH  100%=      5-min Rain = 0
KOD1 141440Z 17009KT 06/06 A3017 RMK A01 T00590059  RH  100%=      5-min Rain = 0
KOD1 141441Z 17009KT 06/06 A3018 RMK A01 T00600060  RH  100%=      5-min Rain = 0
KOD1 141442Z 17009KT 06/06 A3018 RMK A01 T00610061  RH  100%=      5-min Rain = 0
KOD1 141443Z 17009KT 06/06 A3018 RMK A01 T00630063  RH  100%=      5-min Rain = 0
KOD1 141444Z 17009KT 06/06 A3018 RMK A01 T00640064  RH  100%=      5-min Rain = 0
KOD1 141445Z 17008KT 07/07 A3018 RMK A01 T00650065  RH  100%=      5-min Rain = 0
KOD1 141446Z 17008KT 07/07 A3018 RMK A01 T00670067  RH  100%=      5-min Rain = 0
KOD1 141447Z 17007KT 07/07 A3018 RMK A01 T00680068  RH  100%=      5-min Rain = 0
KOD1 141448Z 17007KT 07/07 A3018 RMK A01 T00690069  RH  100%=      5-min Rain = 0
KOD1 141449Z 17006KT 07/07 A3018 RMK A01 T00700071  RH  100%=      5-min Rain = 0
KOD1 141450Z 17008KT 07/07 A3018 RMK A01 T00720072  RH  100%=      5-min Rain = 0
KOD1 141451Z 17007KT 07/07 A3018 RMK A01 T00730074  RH  100%=      5-min Rain = 0
KOD1 141452Z 17008KT 08/08 A3018 RMK A01 T00750075  RH  100%=      5-min Rain = 0
KOD1 141453Z 17007KT 08/08 A3018 RMK A01 T00760076  RH  100%=      5-min Rain = 0
KOD1 141454Z 17007KT 08/08 A3018 RMK A01 T00780078  RH  100%=      5-min Rain = 0
KOD1 141455Z 17007KT 08/08 A3018 RMK A01 T00790079  RH  100%=      5-min Rain = 0
KOD1 141456Z 18007KT 08/08 A3018 RMK A01 T00790079  RH  100%=      5-min Rain = 0
KOD1 141457Z 18006KT 08/08 A3018 RMK A01 T00800080  RH  100%=      5-min Rain = 0
KOD1 141458Z 18006KT 08/08 A3018 RMK A01 T00810081  RH  100%=      5-min Rain = 0
KOD1 141459Z 18007KT 08/08 A3018 RMK A01 T00830083  RH  100%=      5-min Rain = 0
KOD1 141500Z 18007KT 08/09 A3018 RMK A01 T00840085  RH  100%=      5-min Rain = 0
KOD1 141501Z 18006KT 09/09 A3018 RMK A01 T00870087  RH  100%=      5-min Rain = 0
KOD1 141502Z 18007KT 09/09 A3018 RMK A01 T00880088  RH  100%=      5-min Rain = 0
KOD1 141503Z 18007KT 09/09 A3018 RMK A01 T00870088  RH  100%=      5-min Rain = 0
KOD1 141504Z 18007KT 09/09 A3018 RMK A01 T00880088  RH  100%=      5-min Rain = 0
KOD1 141505Z 18008KT 09/09 A3018 RMK A01 T00890089  RH  100%=      5-min Rain = 0
KOD1 141506Z 18008KT 09/09 A3018 RMK A01 T00900090  RH  100%=      5-min Rain = 0
KOD1 141507Z 18008KT 09/09 A3018 RMK A01 T00900090  RH  100%=      5-min Rain = 0
KOD1 141508Z 18008KT 09/09 A3018 RMK A01 T00900090  RH  100%=      5-min Rain = 0
KOD1 141509Z 18008KT 09/09 A3018 RMK A01 T00910091  RH  100%=      5-min Rain = 0
KOD1 141510Z 18008KT 09/09 A3018 RMK A01 T00910090  RH  099%=      5-min Rain = 0
KOD1 141511Z 19008KT 09/09 A3018 RMK A01 T00910089  RH  098%=      5-min Rain = 0
KOD1 141512Z 18008KT 09/09 A3018 RMK A01 T00910087  RH  097%=      5-min Rain = 0
KOD1 141513Z 18007KT 09/09 A3018 RMK A01 T00910086  RH  097%=      5-min Rain = 0
KOD1 141514Z 18007KT 09/09 A3018 RMK A01 T00910087  RH  097%=      5-min Rain = 0
KOD1 141515Z 18007KT 09/09 A3018 RMK A01 T00920087  RH  097%=      5-min Rain = 0
KOD1 141516Z 18007KT 09/09 A3018 RMK A01 T00920087  RH  096%=      5-min Rain = 0
KOD1 141517Z 17007KT 09/09 A3018 RMK A01 T00920086  RH  096%=      5-min Rain = 0
KOD1 141518Z 18008KT 09/09 A3018 RMK A01 T00920085  RH  095%=      5-min Rain = 0
KOD1 141519Z 17008KT 09/09 A3018 RMK A01 T00920085  RH  095%=      5-min Rain = 0
KOD1 141520Z 17008KT 09/09 A3018 RMK A01 T00930086  RH  095%=      5-min Rain = 0
KOD1 141521Z 18008KT 09/09 A3018 RMK A01 T00930086  RH  095%=      5-min Rain = 0
KOD1 141522Z 18008KT 09/09 A3018 RMK A01 T00930086  RH  095%=      5-min Rain = 0
KOD1 141523Z 18008KT 09/09 A3018 RMK A01 T00940086  RH  095%=      5-min Rain = 0
KOD1 141524Z 17009KT 09/09 A3018 RMK A01 T00940086  RH  095%=      5-min Rain = 0
KOD1 141525Z 18009KT 09/09 A3018 RMK A01 T00940085  RH  094%=      5-min Rain = 0
KOD1 141526Z 18009KT 09/09 A3018 RMK A01 T00940085  RH  094%=      5-min Rain = 0
KOD1 141527Z 17009KT 09/09 A3018 RMK A01 T00940085  RH  094%=      5-min Rain = 0
KOD1 141528Z 17009KT 10/09 A3018 RMK A01 T00950085  RH  093%=      5-min Rain = 0
KOD1 141529Z 17009KT 10/09 A3018 RMK A01 T00950085  RH  093%=      5-min Rain = 0
KOD1 141530Z 17010KT 10/08 A3018 RMK A01 T00950084  RH  093%=      5-min Rain = 0
KOD1 141531Z 16008KT 10/08 A3018 RMK A01 T00950084  RH  093%=      5-min Rain = 0
KOD1 141532Z 16009KT 09/08 A3018 RMK A01 T00940082  RH  092%=      5-min Rain = 0
KOD1 141533Z 16010KT 09/08 A3018 RMK A01 T00930081  RH  092%=      5-min Rain = 0
KOD1 141534Z 16010KT 09/08 A3017 RMK A01 T00920079  RH  092%=      5-min Rain = 0
KOD1 141535Z 16010KT 09/08 A3017 RMK A01 T00910078  RH  092%=      5-min Rain = 0
KOD1 141536Z 16010KT 09/08 A3017 RMK A01 T00910079  RH  092%=      5-min Rain = 0
KOD1 141537Z 16009KT 09/08 A3017 RMK A01 T00910080  RH  092%=      5-min Rain = 0
KOD1 141538Z 16009KT 09/08 A3017 RMK A01 T00910079  RH  092%=      5-min Rain = 0
KOD1 141539Z 16008KT 09/08 A3017 RMK A01 T00920080  RH  092%=      5-min Rain = 0
KOD1 141540Z 16009KT 09/08 A3017 RMK A01 T00910078  RH  091%=      5-min Rain = 0
KOD1 141541Z 16009KT 09/08 A3017 RMK A01 T00920079  RH  092%=      5-min Rain = 0
KOD1 141542Z 16009KT 09/08 A3017 RMK A01 T00920078  RH  091%=      5-min Rain = 0
KOD1 141543Z 17009KT 09/08 A3017 RMK A01 T00920079  RH  091%=      5-min Rain = 0
KOD1 141544Z 17009KT 09/08 A3018 RMK A01 T00930079  RH  091%=      5-min Rain = 0
KOD1 141545Z 17008KT 09/08 A3018 RMK A01 T00940080  RH  091%=      5-min Rain = 0
KOD1 141546Z 17009KT 10/08 A3018 RMK A01 T00950081  RH  091%=      5-min Rain = 0
KOD1 141547Z 17008KT 10/08 A3018 RMK A01 T00960082  RH  091%=      5-min Rain = 0
KOD1 141548Z 17007KT 10/08 A3017 RMK A01 T00980083  RH  091%=      5-min Rain = 0
KOD1 141549Z 17009KT 10/09 A3017 RMK A01 T01000085  RH  090%=      5-min Rain = 0
KOD1 141550Z 16007KT 10/08 A3017 RMK A01 T01000083  RH  089%=      5-min Rain = 0
KOD1 141551Z 16008KT 10/09 A3017 RMK A01 T01020085  RH  089%=      5-min Rain = 0
KOD1 141552Z 17009KT 10/08 A3017 RMK A01 T01020083  RH  088%=      5-min Rain = 0
KOD1 141553Z 17008KT 10/08 A3017 RMK A01 T01020083  RH  088%=      5-min Rain = 0
KOD1 141554Z 17008KT 10/08 A3017 RMK A01 T01010080  RH  087%=      5-min Rain = 0
KOD1 141555Z 18008KT 10/08 A3017 RMK A01 T01010080  RH  087%=      5-min Rain = 0
KOD1 141556Z 17008KT 10/08 A3018 RMK A01 T01010082  RH  088%=      5-min Rain = 0
KOD1 141557Z 18009KT 10/08 A3018 RMK A01 T01020084  RH  089%=      5-min Rain = 0
KOD1 141558Z 18010KT 10/08 A3018 RMK A01 T01040084  RH  087%=      5-min Rain = 0
KOD1 141559Z 18009KT 10/08 A3018 RMK A01 T01040083  RH  086%=      5-min Rain = 0
KOD1 141600Z 17009KT 11/08 A3018 RMK A01 T01050084  RH  087%=      5-min Rain = 0
KOD1 141601Z 18009KT 11/08 A3018 RMK A01 T01060084  RH  086%=      5-min Rain = 0
KOD1 141602Z 18009KT 11/08 A3018 RMK A01 T01070083  RH  085%=      5-min Rain = 0
KOD1 141603Z 18010KT 11/08 A3018 RMK A01 T01070082  RH  085%=      5-min Rain = 0
KOD1 141604Z 17010KT 11/08 A3018 RMK A01 T01070083  RH  085%=      5-min Rain = 0
KOD1 141605Z 17010KT 11/08 A3018 RMK A01 T01080083  RH  085%=      5-min Rain = 0
KOD1 141606Z 18010KT 11/08 A3018 RMK A01 T01080082  RH  084%=      5-min Rain = 0
KOD1 141607Z 18010KT 11/08 A3018 RMK A01 T01070082  RH  084%=      5-min Rain = 0
KOD1 141608Z 19010KT 11/08 A3018 RMK A01 T01080083  RH  084%=      5-min Rain = 0
KOD1 141609Z 18010KT 11/08 A3018 RMK A01 T01090083  RH  084%=      5-min Rain = 0
KOD1 141610Z 18010KT 11/08 A3018 RMK A01 T01080081  RH  083%=      5-min Rain = 0
KOD1 141611Z 18009KT 11/08 A3018 RMK A01 T01080083  RH  084%=      5-min Rain = 0
KOD1 141612Z 18010KT 11/08 A3017 RMK A01 T01090083  RH  084%=      5-min Rain = 0
KOD1 141613Z 18012KT 11/08 A3017 RMK A01 T01100084  RH  084%=      5-min Rain = 0
KOD1 141614Z 18011KT 11/08 A3017 RMK A01 T01100083  RH  083%=      5-min Rain = 0
KOD1 141615Z 18012KT 11/08 A3017 RMK A01 T01110083  RH  083%=      5-min Rain = 0
KOD1 141616Z 18011KT 11/08 A3017 RMK A01 T01100082  RH  083%=      5-min Rain = 0
KOD1 141617Z 18011KT 11/08 A3017 RMK A01 T01110084  RH  083%=      5-min Rain = 0
KOD1 141618Z 18010KT 11/08 A3017 RMK A01 T01110083  RH  083%=      5-min Rain = 0
KOD1 141619Z 17011KT 11/08 A3017 RMK A01 T01120084  RH  083%=      5-min Rain = 0
KOD1 141620Z 17012KT 11/08 A3017 RMK A01 T01120083  RH  082%=      5-min Rain = 0
KOD1 141621Z 18011KT 11/08 A3017 RMK A01 T01110083  RH  082%=      5-min Rain = 0
KOD1 141622Z 17009KT 11/08 A3016 RMK A01 T01110083  RH  083%=      5-min Rain = 0
KOD1 141623Z 17009KT 11/08 A3016 RMK A01 T01110083  RH  083%=      5-min Rain = 0
KOD1 141624Z 17010KT 11/08 A3017 RMK A01 T01120083  RH  083%=      5-min Rain = 0
KOD1 141625Z 18010KT 11/08 A3017 RMK A01 T01130084  RH  082%=      5-min Rain = 0
KOD1 141626Z 18009KT 11/08 A3017 RMK A01 T01130083  RH  082%=      5-min Rain = 0
KOD1 141627Z 18009KT 11/08 A3017 RMK A01 T01130083  RH  082%=      5-min Rain = 0
KOD1 141628Z 18008KT 11/08 A3016 RMK A01 T01130083  RH  082%=      5-min Rain = 0
KOD1 141629Z 18009KT 11/08 A3016 RMK A01 T01140083  RH  081%=      5-min Rain = 0
KOD1 141630Z 18009KT 11/08 A3016 RMK A01 T01140084  RH  082%=      5-min Rain = 0
KOD1 141631Z 18010KT 12/08 A3016 RMK A01 T01150084  RH  081%=      5-min Rain = 0
KOD1 141632Z 18008KT 12/08 A3016 RMK A01 T01160084  RH  081%=      5-min Rain = 0
KOD1 141633Z 18008KT 12/09 A3016 RMK A01 T01170085  RH  081%=      5-min Rain = 0
KOD1 141634Z 18008KT 12/08 A3016 RMK A01 T01180084  RH  080%=      5-min Rain = 0
KOD1 141635Z 17009KT 12/08 A3016 RMK A01 T01180084  RH  079%=      5-min Rain = 0
KOD1 141636Z 17009KT 12/08 A3016 RMK A01 T01180083  RH  079%=      5-min Rain = 0
KOD1 141637Z 17009KT 12/08 A3016 RMK A01 T01180083  RH  079%=      5-min Rain = 0
KOD1 141638Z 17010KT 12/08 A3016 RMK A01 T01180084  RH  079%=      5-min Rain = 0
KOD1 141639Z 17011KT 12/08 A3017 RMK A01 T01180083  RH  079%=      5-min Rain = 0
KOD1 141640Z 18011KT 12/08 A3017 RMK A01 T01190084  RH  079%=      5-min Rain = 0
KOD1 141641Z 18010KT 12/09 A3017 RMK A01 T01210085  RH  079%=      5-min Rain = 0
KOD1 141642Z 18011KT 12/08 A3017 RMK A01 T01220084  RH  078%=      5-min Rain = 0
KOD1 141643Z 18010KT 12/08 A3017 RMK A01 T01230083  RH  077%=      5-min Rain = 0
KOD1 141644Z 18009KT 12/08 A3017 RMK A01 T01240084  RH  077%=      5-min Rain = 0
KOD1 141645Z 17009KT 13/09 A3017 RMK A01 T01260085  RH  076%=      5-min Rain = 0
KOD1 141646Z 17009KT 13/08 A3017 RMK A01 T01270084  RH  075%=      5-min Rain = 0
KOD1 141647Z 18009KT 13/08 A3017 RMK A01 T01270084  RH  075%=      5-min Rain = 0
KOD1 141648Z 18008KT 13/08 A3017 RMK A01 T01280084  RH  074%=      5-min Rain = 0
KOD1 141649Z 18008KT 13/08 A3017 RMK A01 T01280083  RH  074%=      5-min Rain = 0
KOD1 141650Z 19007KT 13/08 A3017 RMK A01 T01280084  RH  074%=      5-min Rain = 0
KOD1 141651Z 19009KT 13/08 A3017 RMK A01 T01280083  RH  074%=      5-min Rain = 0
KOD1 141652Z 19008KT 13/08 A3017 RMK A01 T01290084  RH  074%=      5-min Rain = 0
KOD1 141653Z 20010KT 13/08 A3017 RMK A01 T01310083  RH  073%=      5-min Rain = 0
KOD1 141654Z 21009KT 13/08 A3017 RMK A01 T01310083  RH  073%=      5-min Rain = 0
KOD1 141655Z 21009KT 13/08 A3017 RMK A01 T01310082  RH  072%=      5-min Rain = 0
KOD1 141656Z 21009KT 13/08 A3017 RMK A01 T01310082  RH  072%=      5-min Rain = 0
KOD1 141657Z 20008KT 13/08 A3017 RMK A01 T01300081  RH  072%=      5-min Rain = 0
KOD1 141658Z 20008KT 13/08 A3017 RMK A01 T01290081  RH  073%=      5-min Rain = 0
KOD1 141659Z 21009KT 13/08 A3017 RMK A01 T01290081  RH  072%=      5-min Rain = 0
KOD1 141700Z 21009KT 13/08 A3017 RMK A01 T01290082  RH  073%=      5-min Rain = 0
KOD1 141701Z 20009KT 13/08 A3017 RMK A01 T01290081  RH  072%=      5-min Rain = 0
KOD1 141702Z 20009KT 13/08 A3017 RMK A01 T01290081  RH  073%=      5-min Rain = 0
KOD1 141703Z 19009KT 13/08 A3017 RMK A01 T01290081  RH  072%=      5-min Rain = 0
KOD1 141704Z 19008KT 13/08 A3016 RMK A01 T01290081  RH  073%=      5-min Rain = 0
KOD1 141705Z 18008KT 13/08 A3016 RMK A01 T01290081  RH  073%=      5-min Rain = 0
KOD1 141706Z 20008KT 13/08 A3016 RMK A01 T01290081  RH  072%=      5-min Rain = 0
KOD1 141707Z 20008KT 13/08 A3016 RMK A01 T01300082  RH  072%=      5-min Rain = 0
KOD1 141708Z 19007KT 13/08 A3016 RMK A01 T01310081  RH  071%=      5-min Rain = 0
KOD1 141709Z 19008KT 13/08 A3016 RMK A01 T01320081  RH  071%=      5-min Rain = 0
KOD1 141710Z 20008KT 13/08 A3016 RMK A01 T01340083  RH  072%=      5-min Rain = 0
KOD1 141711Z 21009KT 14/08 A3016 RMK A01 T01350081  RH  070%=      5-min Rain = 0
KOD1 141712Z 20008KT 14/08 A3016 RMK A01 T01360082  RH  070%=      5-min Rain = 0
KOD1 141713Z 19007KT 14/08 A3016 RMK A01 T01370082  RH  070%=      5-min Rain = 0
KOD1 141714Z 19007KT 14/08 A3016 RMK A01 T01370081  RH  069%=      5-min Rain = 0
KOD1 141715Z 20008KT 14/08 A3016 RMK A01 T01360082  RH  069%=      5-min Rain = 0
KOD1 141716Z 19009KT 14/08 A3016 RMK A01 T01360083  RH  070%=      5-min Rain = 0
KOD1 141717Z 18008KT 14/08 A3016 RMK A01 T01360081  RH  069%=      5-min Rain = 0
KOD1 141718Z 18009KT 14/08 A3016 RMK A01 T01360081  RH  069%=      5-min Rain = 0
KOD1 141719Z 18010KT 14/08 A3015 RMK A01 T01360081  RH  069%=      5-min Rain = 0
KOD1 141720Z 18009KT 14/08 A3015 RMK A01 T01360081  RH  069%=      5-min Rain = 0
KOD1 141721Z 17008KT 14/08 A3015 RMK A01 T01370081  RH  069%=      5-min Rain = 0
KOD1 141722Z 18009KT 14/08 A3015 RMK A01 T01370082  RH  069%=      5-min Rain = 0
KOD1 141723Z 18008KT 14/08 A3015 RMK A01 T01390083  RH  069%=      5-min Rain = 0
KOD1 141724Z 18009KT 14/08 A3015 RMK A01 T01400082  RH  068%=      5-min Rain = 0
KOD1 141725Z 18010KT 14/08 A3015 RMK A01 T01400082  RH  068%=      5-min Rain = 0
KOD1 141726Z 18010KT 14/08 A3015 RMK A01 T01400082  RH  068%=      5-min Rain = 0
KOD1 141727Z 20010KT 14/08 A3015 RMK A01 T01400082  RH  068%=      5-min Rain = 0
KOD1 141728Z 19010KT 14/08 A3015 RMK A01 T01410082  RH  068%=      5-min Rain = 0
KOD1 141729Z 19009KT 14/08 A3015 RMK A01 T01410082  RH  068%=      5-min Rain = 0
KOD1 141730Z 19009KT 14/08 A3015 RMK A01 T01420083  RH  068%=      5-min Rain = 0
KOD1 141731Z 19010KT 14/08 A3015 RMK A01 T01430082  RH  067%=      5-min Rain = 0
KOD1 141732Z 18011KT 14/08 A3015 RMK A01 T01430082  RH  066%=      5-min Rain = 0
KOD1 141733Z 18010KT 14/08 A3015 RMK A01 T01430082  RH  066%=      5-min Rain = 0
KOD1 141734Z 18011KT 14/08 A3015 RMK A01 T01440081  RH  066%=      5-min Rain = 0
KOD1 141735Z 19010KT 14/08 A3015 RMK A01 T01440081  RH  066%=      5-min Rain = 0
KOD1 141736Z 19009KT 14/08 A3015 RMK A01 T01440082  RH  066%=      5-min Rain = 0
KOD1 141737Z 18007KT 15/08 A3015 RMK A01 T01460084  RH  066%=      5-min Rain = 0
KOD1 141738Z 19010KT 15/08 A3015 RMK A01 T01490082  RH  064%=      5-min Rain = 0
KOD1 141739Z 18011KT 15/08 A3015 RMK A01 T01490081  RH  064%=      5-min Rain = 0
KOD1 141740Z 18009KT 15/08 A3014 RMK A01 T01490082  RH  064%=      5-min Rain = 0
KOD1 141741Z 18009KT 15/08 A3014 RMK A01 T01480080  RH  064%=      5-min Rain = 0
KOD1 141742Z 18009KT 15/08 A3014 RMK A01 T01470081  RH  064%=      5-min Rain = 0
KOD1 141743Z 19008KT 15/08 A3014 RMK A01 T01480083  RH  065%=      5-min Rain = 0
KOD1 141744Z 18008KT 15/08 A3014 RMK A01 T01490082  RH  064%=      5-min Rain = 0
KOD1 141745Z 19009KT 15/08 A3014 RMK A01 T01500082  RH  064%=      5-min Rain = 0
KOD1 141746Z 19009KT 15/08 A3014 RMK A01 T01510079  RH  062%=      5-min Rain = 0
KOD1 141747Z 19009KT 15/08 A3014 RMK A01 T01510080  RH  062%=      5-min Rain = 0
KOD1 141748Z 19007KT 15/08 A3014 RMK A01 T01520081  RH  062%=      5-min Rain = 0
KOD1 141749Z 19008KT 15/08 A3014 RMK A01 T01540080  RH  061%=      5-min Rain = 0
KOD1 141750Z 19008KT 16/08 A3014 RMK A01 T01550079  RH  061%=      5-min Rain = 0
KOD1 141751Z 19009KT 16/08 A3014 RMK A01 T01550081  RH  061%=      5-min Rain = 0
KOD1 141752Z 18008KT 16/08 A3014 RMK A01 T01550082  RH  062%=      5-min Rain = 0
KOD1 141753Z 17007KT 16/08 A3014 RMK A01 T01550082  RH  062%=      5-min Rain = 0
KOD1 141754Z 16008KT 16/08 A3014 RMK A01 T01550083  RH  062%=      5-min Rain = 0
KOD1 141755Z 17009KT 16/08 A3014 RMK A01 T01550082  RH  062%=      5-min Rain = 0
KOD1 141756Z 17008KT 16/08 A3014 RMK A01 T01550083  RH  062%=      5-min Rain = 0
KOD1 141757Z 17009KT 16/08 A3014 RMK A01 T01570083  RH  061%=      5-min Rain = 0
KOD1 141758Z 18009KT 16/08 A3014 RMK A01 T01580082  RH  060%=      5-min Rain = 0
KOD1 141759Z 18010KT 16/08 A3014 RMK A01 T01590082  RH  060%=      5-min Rain = 0
KOD1 141800Z 18010KT 16/08 A3014 RMK A01 T01590083  RH  061%=      5-min Rain = 0
KOD1 141801Z 19009KT 16/08 A3014 RMK A01 T01600083  RH  060%=      5-min Rain = 0
KOD1 141802Z 19009KT 16/08 A3013 RMK A01 T01600084  RH  060%=      5-min Rain = 0
KOD1 141803Z 18008KT 16/08 A3013 RMK A01 T01600082  RH  060%=      5-min Rain = 0
KOD1 141804Z 19008KT 16/08 A3013 RMK A01 T01610083  RH  060%=      5-min Rain = 0
KOD1 141805Z 19007KT 16/08 A3013 RMK A01 T01600084  RH  060%=      5-min Rain = 0
KOD1 141806Z 19007KT 16/08 A3013 RMK A01 T01600084  RH  060%=      5-min Rain = 0
KOD1 141807Z 20007KT 16/09 A3014 RMK A01 T01610086  RH  061%=      5-min Rain = 0
KOD1 141808Z 20008KT 16/09 A3014 RMK A01 T01630086  RH  060%=      5-min Rain = 0
KOD1 141809Z 20010KT 16/08 A3014 RMK A01 T01640083  RH  059%=      5-min Rain = 0
KOD1 141810Z 19009KT 16/08 A3014 RMK A01 T01630084  RH  060%=      5-min Rain = 0
KOD1 141811Z 18009KT 16/09 A3013 RMK A01 T01640087  RH  060%=      5-min Rain = 0
KOD1 141812Z 18010KT 17/09 A3013 RMK A01 T01660085  RH  059%=      5-min Rain = 0
KOD1 141813Z 18010KT 17/09 A3013 RMK A01 T01670085  RH  058%=      5-min Rain = 0
KOD1 141814Z 18010KT 17/08 A3013 RMK A01 T01670084  RH  058%=      5-min Rain = 0
KOD1 141815Z 18008KT 17/08 A3013 RMK A01 T01670083  RH  058%=      5-min Rain = 0
KOD1 141816Z 18007KT 17/09 A3012 RMK A01 T01680085  RH  058%=      5-min Rain = 0
KOD1 141817Z 18008KT 17/08 A3012 RMK A01 T01690084  RH  057%=      5-min Rain = 0
KOD1 141818Z 18010KT 17/08 A3012 RMK A01 T01700081  RH  056%=      5-min Rain = 0
KOD1 141819Z 17011KT 17/08 A3012 RMK A01 T01700082  RH  056%=      5-min Rain = 0
KOD1 141820Z 17010KT 17/08 A3012 RMK A01 T01700082  RH  056%=      5-min Rain = 0
KOD1 141821Z 17012KT 17/08 A3012 RMK A01 T01700081  RH  056%=      5-min Rain = 0
KOD1 141822Z 16011KT 17/08 A3012 RMK A01 T01710080  RH  055%=      5-min Rain = 0
KOD1 141823Z 17010KT 17/08 A3012 RMK A01 T01730082  RH  055%=      5-min Rain = 0
KOD1 141824Z 18008KT 18/08 A3012 RMK A01 T01760083  RH  054%=      5-min Rain = 0
KOD1 141825Z 18011KT 18/08 A3012 RMK A01 T01780077  RH  052%=      5-min Rain = 0
KOD1 141826Z 19010KT 18/08 A3012 RMK A01 T01780076  RH  051%=      5-min Rain = 0
KOD1 141827Z 18010KT 18/08 A3011 RMK A01 T01780077  RH  052%=      5-min Rain = 0
KOD1 141828Z 17009KT 18/08 A3011 RMK A01 T01790079  RH  052%=      5-min Rain = 0
KOD1 141829Z 18012KT 18/08 A3011 RMK A01 T01820077  RH  050%=      5-min Rain = 0
KOD1 141830Z 19011KT 18/08 A3011 RMK A01 T01830076  RH  050%=      5-min Rain = 0
KOD1 141831Z 19012KT 18/08 A3011 RMK A01 T01830076  RH  049%=      5-min Rain = 0
KOD1 141832Z 18010KT 18/08 A3011 RMK A01 T01840077  RH  050%=      5-min Rain = 0
KOD1 141833Z 18010KT 19/08 A3011 RMK A01 T01860077  RH  049%=      5-min Rain = 0
KOD1 141834Z 19012KT 19/08 A3011 RMK A01 T01870078  RH  049%=      5-min Rain = 0
KOD1 141835Z 19009KT 19/08 A3011 RMK A01 T01860079  RH  050%=      5-min Rain = 0
KOD1 141836Z 20009KT 19/08 A3011 RMK A01 T01880080  RH  049%=      5-min Rain = 0
KOD1 141837Z 19009KT 19/08 A3011 RMK A01 T01880078  RH  049%=      5-min Rain = 0
KOD1 141838Z 16010KT 19/08 A3011 RMK A01 T01890084  RH  050%=      5-min Rain = 0
KOD1 141839Z 17010KT 19/09 A3011 RMK A01 T01920086  RH  050%=      5-min Rain = 0
KOD1 141840Z 18008KT 19/08 A3011 RMK A01 T01940084  RH  049%=      5-min Rain = 0
KOD1 141841Z 17011KT 20/09 A301 RMK A01 T01950086  RH  049%=      5-min Rain = 0
KOD1 141842Z 16011KT 20/09 A301 RMK A01 T01960087  RH  049%=      5-min Rain = 0
KOD1 141843Z 16011KT 20/09 A301 RMK A01 T01960087  RH  049%=      5-min Rain = 0
KOD1 141844Z 18008KT 20/09 A301 RMK A01 T01970088  RH  049%=      5-min Rain = 0
KOD1 141845Z 17008KT 20/09 A301 RMK A01 T01980088  RH  049%=      5-min Rain = 0
KOD1 141846Z 18011KT 20/08 A301 RMK A01 T01980084  RH  048%=      5-min Rain = 0
KOD1 141847Z 18009KT 20/08 A301 RMK A01 T01960083  RH  048%=      5-min Rain = 0
KOD1 141848Z 16008KT 20/09 A301 RMK A01 T01970085  RH  048%=      5-min Rain = 0
KOD1 141849Z 16010KT 20/08 A301 RMK A01 T01980084  RH  048%=      5-min Rain = 0
KOD1 141850Z 17011KT 20/09 A301 RMK A01 T01990085  RH  048%=      5-min Rain = 0
KOD1 141851Z 16007KT 20/08 A301 RMK A01 T02000084  RH  047%=      5-min Rain = 0
KOD1 141852Z 16010KT 20/08 A3009 RMK A01 T02000084  RH  047%=      5-min Rain = 0
KOD1 141853Z 18009KT 20/08 A3009 RMK A01 T02000084  RH  047%=      5-min Rain = 0
KOD1 141854Z 15009KT 20/08 A3009 RMK A01 T02020084  RH  047%=      5-min Rain = 0
KOD1 141855Z 17012KT 20/08 A3009 RMK A01 T02020080  RH  045%=      5-min Rain = 0
KOD1 141856Z 17011KT 20/08 A3009 RMK A01 T02010081  RH  046%=      5-min Rain = 0
KOD1 141857Z 17010KT 20/08 A3009 RMK A01 T02010082  RH  046%=      5-min Rain = 0
KOD1 141858Z 18012KT 20/08 A3009 RMK A01 T02030083  RH  046%=      5-min Rain = 0
KOD1 141859Z 18013KT 21/08 A3009 RMK A01 T02050081  RH  045%=      5-min Rain = 0
KOD1 141900Z 18011KT 20/08 A3009 RMK A01 T02030078  RH  044%=      5-min Rain = 0
KOD1 141901Z 18008KT 20/08 A3009 RMK A01 T02020080  RH  045%=      5-min Rain = 0
KOD1 141902Z 18010KT 20/08 A3009 RMK A01 T02020078  RH  045%=      5-min Rain = 0
KOD1 141903Z 19008KT 20/08 A3009 RMK A01 T02000078  RH  045%=      5-min Rain = 0
KOD1 141904Z 19012KT 20/08 A3009 RMK A01 T02010076  RH  044%=      5-min Rain = 0
KOD1 141905Z 19011KT 20/08 A3009 RMK A01 T02010077  RH  045%=      5-min Rain = 0
KOD1 141906Z 19009KT 20/08 A3009 RMK A01 T02010079  RH  045%=      5-min Rain = 0
KOD1 141907Z 19008KT 20/08 A3008 RMK A01 T02000078  RH  045%=      5-min Rain = 0
KOD1 141908Z 18007KT 20/08 A3008 RMK A01 T02000080  RH  046%=      5-min Rain = 0
KOD1 141909Z 15008KT 20/08 A3008 RMK A01 T02000077  RH  045%=      5-min Rain = 0
KOD1 141910Z 17010G15KT 20/08 A3008 RMK A01 T02010079  RH  045%=      5-min Rain = 0
KOD1 141911Z 17010KT 20/08 A3008 RMK A01 T02030077  RH  044%=      5-min Rain = 0
KOD1 141912Z 17008KT 20/08 A3008 RMK A01 T02030075  RH  044%=      5-min Rain = 0
KOD1 141913Z 18009G14KT 20/08 A3008 RMK A01 T02040076  RH  044%=      5-min Rain = 0
KOD1 141914Z 18010KT 20/08 A3008 RMK A01 T02040075  RH  043%=      5-min Rain = 0
KOD1 141915Z 18010KT 21/08 A3008 RMK A01 T02050078  RH  044%=      5-min Rain = 0
KOD1 141916Z 18011KT 21/08 A3008 RMK A01 T02070077  RH  043%=      5-min Rain = 0
KOD1 141917Z 19009KT 21/08 A3008 RMK A01 T02070075  RH  042%=      5-min Rain = 0
KOD1 141918Z 20008KT 21/08 A3008 RMK A01 T02060076  RH  043%=      5-min Rain = 0
KOD1 141919Z 19011KT 21/07 A3008 RMK A01 T02060074  RH  042%=      5-min Rain = 0
KOD1 141920Z 19011KT 21/07 A3008 RMK A01 T02050072  RH  042%=      5-min Rain = 0
KOD1 141921Z 18011KT 20/07 A3008 RMK A01 T02040072  RH  042%=      5-min Rain = 0
KOD1 141922Z 19011KT 21/07 A3007 RMK A01 T02060072  RH  042%=      5-min Rain = 0
KOD1 141923Z 19009KT 21/07 A3007 RMK A01 T02070073  RH  042%=      5-min Rain = 0
KOD1 141924Z 18012KT 21/07 A3007 RMK A01 T02080073  RH  042%=      5-min Rain = 0
KOD1 141925Z 17008KT 21/07 A3007 RMK A01 T02080073  RH  042%=      5-min Rain = 0
KOD1 141926Z 18008KT 21/08 A3007 RMK A01 T02090076  RH  042%=      5-min Rain = 0
KOD1 141927Z 18009KT 21/08 A3007 RMK A01 T02110078  RH  042%=      5-min Rain = 0
KOD1 141928Z 18012KT 21/07 A3007 RMK A01 T02120074  RH  041%=      5-min Rain = 0
KOD1 141929Z 19009KT 21/07 A3007 RMK A01 T02120073  RH  041%=      5-min Rain = 0
KOD1 141930Z 19011KT 21/07 A3007 RMK A01 T02110073  RH  041%=      5-min Rain = 0
KOD1 141931Z 20014KT 21/07 A3007 RMK A01 T02110073  RH  041%=      5-min Rain = 0
KOD1 141932Z 20011KT 21/07 A3007 RMK A01 T02110072  RH  041%=      5-min Rain = 0
KOD1 141933Z 19010KT 21/07 A3007 RMK A01 T02110074  RH  041%=      5-min Rain = 0
KOD1 141934Z 18009KT 21/08 A3007 RMK A01 T02110077  RH  042%=      5-min Rain = 0
KOD1 141935Z 18012KT 21/07 A3007 RMK A01 T02110073  RH  041%=      5-min Rain = 0
KOD1 141936Z 19010KT 21/07 A3007 RMK A01 T02110071  RH  040%=      5-min Rain = 0
KOD1 141937Z 19010KT 21/07 A3007 RMK A01 T02100073  RH  041%=      5-min Rain = 0
KOD1 141938Z 18009KT 21/07 A3007 RMK A01 T02130074  RH  041%=      5-min Rain = 0
KOD1 141939Z 18011KT 22/07 A3007 RMK A01 T02170074  RH  040%=      5-min Rain = 0
KOD1 141940Z 18012KT 22/07 A3007 RMK A01 T02190069  RH  038%=      5-min Rain = 0
KOD1 141941Z 18011KT 22/07 A3007 RMK A01 T02190071  RH  039%=      5-min Rain = 0
KOD1 141942Z 18010KT 22/07 A3006 RMK A01 T02200072  RH  038%=      5-min Rain = 0
KOD1 141943Z 17012KT 22/07 A3006 RMK A01 T02190072  RH  039%=      5-min Rain = 0
KOD1 141944Z 16015KT 22/07 A3006 RMK A01 T02200070  RH  038%=      5-min Rain = 0
KOD1 141945Z 17012KT 22/07 A3006 RMK A01 T02200071  RH  038%=      5-min Rain = 0
KOD1 141946Z 17012KT 22/07 A3006 RMK A01 T02190071  RH  038%=      5-min Rain = 0
KOD1 141947Z 19013KT 22/07 A3006 RMK A01 T02210072  RH  038%=      5-min Rain = 0
KOD1 141948Z 18013KT 22/07 A3006 RMK A01 T02230071  RH  037%=      5-min Rain = 0
KOD1 141949Z 17011KT 22/07 A3006 RMK A01 T02240074  RH  038%=      5-min Rain = 0
KOD1 141950Z 17010KT 22/08 A3006 RMK A01 T02230075  RH  039%=      5-min Rain = 0
KOD1 141951Z 19011KT 22/07 A3005 RMK A01 T02230073  RH  038%=      5-min Rain = 0
KOD1 141952Z 18012KT 22/07 A3005 RMK A01 T02230070  RH  037%=      5-min Rain = 0
KOD1 141953Z 18013KT 22/08 A3005 RMK A01 T02230075  RH  038%=      5-min Rain = 0
KOD1 141954Z 17010KT 22/07 A3005 RMK A01 T02230074  RH  038%=      5-min Rain = 0
KOD1 141955Z 18010KT 22/08 A3005 RMK A01 T02240075  RH  038%=      5-min Rain = 0
KOD1 141956Z 17012KT 22/07 A3005 RMK A01 T02240074  RH  038%=      5-min Rain = 0
KOD1 141957Z 18012KT 23/08 A3005 RMK A01 T02260075  RH  038%=      5-min Rain = 0
KOD1 141958Z 17010KT 23/07 A3005 RMK A01 T02250073  RH  038%=      5-min Rain = 0
KOD1 141959Z 19008KT 23/08 A3005 RMK A01 T02250075  RH  038%=      5-min Rain = 0
KOD1 142000Z 20012KT 23/07 A3005 RMK A01 T02280069  RH  036%=      5-min Rain = 0
KOD1 142001Z 19011KT 23/07 A3005 RMK A01 T02290069  RH  036%=      5-min Rain = 0
KOD1 142002Z 17012KT 23/07 A3005 RMK A01 T02300068  RH  035%=      5-min Rain = 0
KOD1 142003Z 17012KT 23/07 A3005 RMK A01 T02300071  RH  036%=      5-min Rain = 0
KOD1 142004Z 19014KT 23/07 A3004 RMK A01 T02290067  RH  035%=      5-min Rain = 0
KOD1 142005Z 18015KT 23/07 A3004 RMK A01 T02290066  RH  035%=      5-min Rain = 0
KOD1 142006Z 19012KT 23/07 A3004 RMK A01 T02290066  RH  035%=      5-min Rain = 0
KOD1 142007Z 19013KT 23/07 A3004 RMK A01 T02300068  RH  035%=      5-min Rain = 0
KOD1 142008Z 19012KT 23/07 A3004 RMK A01 T02310068  RH  035%=      5-min Rain = 0
KOD1 142009Z 19012KT 23/07 A3004 RMK A01 T02330068  RH  035%=      5-min Rain = 0
KOD1 142010Z 19011KT 23/07 A3004 RMK A01 T02330067  RH  034%=      5-min Rain = 0
KOD1 142011Z 19013KT 23/06 A3004 RMK A01 T02340063  RH  033%=      5-min Rain = 0
KOD1 142012Z 19013KT 23/06 A3004 RMK A01 T02340064  RH  033%=      5-min Rain = 0
KOD1 142013Z 19011KT 24/07 A3003 RMK A01 T02360066  RH  033%=      5-min Rain = 0
KOD1 142014Z 18011KT 24/07 A3003 RMK A01 T02390068  RH  033%=      5-min Rain = 0
KOD1 142015Z 17015G22KT 24/07 A3003 RMK A01 T02410065  RH  032%=      5-min Rain = 0
KOD1 142016Z 19014KT 24/07 A3003 RMK A01 T02410065  RH  032%=      5-min Rain = 0
KOD1 142017Z 18013KT 24/07 A3003 RMK A01 T02400065  RH  032%=      5-min Rain = 0
KOD1 142018Z 18013KT 24/07 A3003 RMK A01 T02400066  RH  033%=      5-min Rain = 0
KOD1 142019Z 18012KT 24/07 A3003 RMK A01 T02400067  RH  033%=      5-min Rain = 0
KOD1 142020Z 18011KT 24/07 A3003 RMK A01 T02410067  RH  033%=      5-min Rain = 0
KOD1 142021Z 18012KT 24/07 A3003 RMK A01 T02420066  RH  032%=      5-min Rain = 0
KOD1 142022Z 19013KT 24/06 A3003 RMK A01 T02430064  RH  032%=      5-min Rain = 0
KOD1 142023Z 19015KT 24/07 A3003 RMK A01 T02430065  RH  032%=      5-min Rain = 0
KOD1 142024Z 17015KT 24/07 A3003 RMK A01 T02440066  RH  032%=      5-min Rain = 0
KOD1 142025Z 17013KT 24/07 A3003 RMK A01 T02440067  RH  032%=      5-min Rain = 0
KOD1 142026Z 17016KT 25/07 A3003 RMK A01 T02450066  RH  032%=      5-min Rain = 0
KOD1 142027Z 17014KT 24/07 A3003 RMK A01 T02440065  RH  032%=      5-min Rain = 0
KOD1 142028Z 18013KT 24/06 A3003 RMK A01 T02420064  RH  032%=      5-min Rain = 0
KOD1 142029Z 18012G17KT 24/07 A3003 RMK A01 T02420065  RH  032%=      5-min Rain = 0
KOD1 142030Z 19010KT 24/07 A3003 RMK A01 T02440065  RH  032%=      5-min Rain = 0
KOD1 142031Z 18015KT 25/06 A3003 RMK A01 T02450064  RH  031%=      5-min Rain = 0
KOD1 142032Z 19017KT 25/06 A3003 RMK A01 T02450062  RH  031%=      5-min Rain = 0
KOD1 142033Z 18016KT 24/06 A3003 RMK A01 T02440062  RH  031%=      5-min Rain = 0
KOD1 142034Z 19014KT 24/06 A3003 RMK A01 T02430063  RH  031%=      5-min Rain = 0
KOD1 142035Z 19013KT 24/06 A3002 RMK A01 T02430063  RH  031%=      5-min Rain = 0
KOD1 142036Z 19013KT 24/06 A3002 RMK A01 T02430062  RH  031%=      5-min Rain = 0
KOD1 142037Z 19012KT 24/06 A3002 RMK A01 T02440062  RH  031%=      5-min Rain = 0
KOD1 142038Z 17015KT 25/06 A3002 RMK A01 T02450061  RH  031%=      5-min Rain = 0
KOD1 142039Z 18015KT 25/06 A3002 RMK A01 T02470062  RH  031%=      5-min Rain = 0
KOD1 142040Z 19016KT 25/06 A3002 RMK A01 T02480063  RH  030%=      5-min Rain = 0
KOD1 142041Z 18014KT 25/06 A3002 RMK A01 T02480062  RH  030%=      5-min Rain = 0
KOD1 142042Z 18011KT 25/06 A3003 RMK A01 T02460063  RH  031%=      5-min Rain = 0
KOD1 142043Z 18012KT 25/06 A3003 RMK A01 T02470063  RH  031%=      5-min Rain = 0
KOD1 142044Z 19011KT 25/06 A3002 RMK A01 T02480063  RH  030%=      5-min Rain = 0
KOD1 142045Z 19011KT 25/06 A3002 RMK A01 T02480062  RH  030%=      5-min Rain = 0
KOD1 142046Z 20011KT 25/06 A3002 RMK A01 T02480062  RH  030%=      5-min Rain = 0
KOD1 142047Z 20012KT 25/06 A3002 RMK A01 T02490063  RH  030%=      5-min Rain = 0
KOD1 142048Z 18010KT 25/07 A3002 RMK A01 T02520065  RH  030%=      5-min Rain = 0
KOD1 142049Z 18013KT 25/06 A3002 RMK A01 T02540064  RH  030%=      5-min Rain = 0
KOD1 142050Z 18015KT 25/07 A3002 RMK A01 T02540065  RH  030%=      5-min Rain = 0
KOD1 142051Z 18013KT 25/06 A3002 RMK A01 T02540064  RH  030%=      5-min Rain = 0
KOD1 142052Z 19012KT 26/06 A3002 RMK A01 T02550064  RH  030%=      5-min Rain = 0
KOD1 142053Z 20013KT 26/06 A3002 RMK A01 T02550064  RH  029%=      5-min Rain = 0
KOD1 142054Z 20015KT 26/06 A3002 RMK A01 T02550064  RH  030%=      5-min Rain = 0
KOD1 142055Z 18013KT 26/07 A3002 RMK A01 T02550067  RH  030%=      5-min Rain = 0
KOD1 142056Z 19012KT 25/07 A3002 RMK A01 T02540066  RH  030%=      5-min Rain = 0
KOD1 142057Z 18013KT 25/07 A3002 RMK A01 T02540065  RH  030%=      5-min Rain = 0
KOD1 142058Z 18013KT 26/07 A3002 RMK A01 T02560066  RH  030%=      5-min Rain = 0
KOD1 142059Z 18012G17KT 26/07 A3002 RMK A01 T02570066  RH  029%=      5-min Rain = 0
KOD1 142100Z 20014KT 26/07 A3002 RMK A01 T02580065  RH  029%=      5-min Rain = 0
KOD1 142101Z 18017KT 26/07 A3002 RMK A01 T02570066  RH  029%=      5-min Rain = 0
KOD1 142102Z 18016KT 26/07 A3002 RMK A01 T02560065  RH  030%=      5-min Rain = 0
KOD1 142103Z 18014KT 26/07 A3002 RMK A01 T02570065  RH  029%=      5-min Rain = 0
KOD1 142104Z 18017KT 26/07 A3001 RMK A01 T02580065  RH  029%=      5-min Rain = 0
KOD1 142105Z 17016KT 26/07 A3001 RMK A01 T02570065  RH  029%=      5-min Rain = 0
KOD1 142106Z 17016KT 26/07 A3001 RMK A01 T02550066  RH  030%=      5-min Rain = 0
KOD1 142107Z 17014KT 26/07 A3001 RMK A01 T02550067  RH  030%=      5-min Rain = 0
KOD1 142108Z 17014KT 26/07 A3001 RMK A01 T02550067  RH  030%=      5-min Rain = 0
KOD1 142109Z 18014KT 25/07 A3001 RMK A01 T02540067  RH  030%=      5-min Rain = 0
KOD1 142110Z 19014KT 26/07 A3001 RMK A01 T02550067  RH  030%=      5-min Rain = 0
KOD1 142111Z 17015KT 26/07 A3001 RMK A01 T02550068  RH  030%=      5-min Rain = 0
KOD1 142112Z 17012KT 25/07 A3001 RMK A01 T02540066  RH  030%=      5-min Rain = 0
KOD1 142113Z 17011KT 25/07 A3001 RMK A01 T02540068  RH  030%=      5-min Rain = 0
KOD1 142114Z 17014KT 26/07 A3001 RMK A01 T02550069  RH  031%=      5-min Rain = 0
KOD1 142115Z 17013KT 26/07 A3001 RMK A01 T02570072  RH  031%=      5-min Rain = 0
KOD1 142116Z 18014KT 26/07 A3001 RMK A01 T02570072  RH  031%=      5-min Rain = 0
KOD1 142117Z 17014KT 26/07 A30 RMK A01 T02560072  RH  031%=      5-min Rain = 0
KOD1 142118Z 18016KT 26/07 A30 RMK A01 T02560073  RH  031%=      5-min Rain = 0
KOD1 142119Z 17015KT 26/07 A30 RMK A01 T02550072  RH  031%=      5-min Rain = 0
KOD1 142120Z 16014KT 26/07 A30 RMK A01 T02550073  RH  031%=      5-min Rain = 0
KOD1 142121Z 15014KT 26/07 A30 RMK A01 T02550072  RH  031%=      5-min Rain = 0
KOD1 142122Z 17017KT 26/07 A30 RMK A01 T02560072  RH  031%=      5-min Rain = 0
KOD1 142123Z 17013KT 26/07 A30 RMK A01 T02560073  RH  031%=      5-min Rain = 0
KOD1 142124Z 17012KT 26/07 A30 RMK A01 T02560073  RH  031%=      5-min Rain = 0
KOD1 142125Z 17011KT 26/07 A30 RMK A01 T02570073  RH  031%=      5-min Rain = 0
KOD1 142126Z 19015KT 26/07 A30 RMK A01 T02580070  RH  030%=      5-min Rain = 0
KOD1 142127Z 19016KT 26/07 A30 RMK A01 T02580070  RH  030%=      5-min Rain = 0
KOD1 142128Z 19013KT 26/07 A30 RMK A01 T02570071  RH  030%=      5-min Rain = 0
KOD1 142129Z 18011KT 26/07 A30 RMK A01 T02580072  RH  031%=      5-min Rain = 0
KOD1 142130Z 18013KT 26/07 A30 RMK A01 T02600070  RH  030%=      5-min Rain = 0
KOD1 142131Z 18015KT 26/07 A30 RMK A01 T02610070  RH  030%=      5-min Rain = 0
KOD1 142132Z 18018KT 26/07 A2999 RMK A01 T02620071  RH  030%=      5-min Rain = 0
KOD1 142133Z 18016KT 26/07 A2999 RMK A01 T02610072  RH  030%=      5-min Rain = 0
KOD1 142134Z 18014KT 26/07 A2999 RMK A01 T02600072  RH  030%=      5-min Rain = 0
KOD1 142135Z 16014KT 26/07 A2999 RMK A01 T02600074  RH  031%=      5-min Rain = 0
KOD1 142136Z 16015KT 26/07 A2999 RMK A01 T02610073  RH  030%=      5-min Rain = 0
KOD1 142137Z 16016KT 26/07 A2999 RMK A01 T02610074  RH  030%=      5-min Rain = 0
KOD1 142138Z 17015KT 26/07 A2999 RMK A01 T02620074  RH  030%=      5-min Rain = 0
KOD1 142139Z 17018KT 26/08 A2999 RMK A01 T02630075  RH  030%=      5-min Rain = 0
KOD1 142140Z 18016KT 26/08 A2999 RMK A01 T02630075  RH  030%=      5-min Rain = 0
KOD1 142141Z 18014KT 26/08 A2999 RMK A01 T02620077  RH  031%=      5-min Rain = 0
KOD1 142142Z 17015KT 26/08 A2999 RMK A01 T02620080  RH  031%=      5-min Rain = 0
KOD1 142143Z 17017KT 26/08 A2999 RMK A01 T02630079  RH  031%=      5-min Rain = 0
KOD1 142144Z 18016KT 26/08 A2999 RMK A01 T02630082  RH  032%=      5-min Rain = 0
KOD1 142145Z 18015KT 26/08 A2999 RMK A01 T02630083  RH  032%=      5-min Rain = 0
KOD1 142146Z 17013KT 26/08 A2999 RMK A01 T02630083  RH  032%=      5-min Rain = 0
KOD1 142147Z 17015KT 26/08 A2998 RMK A01 T02640084  RH  032%=      5-min Rain = 0
KOD1 142148Z 18016KT 26/08 A2998 RMK A01 T02640084  RH  032%=      5-min Rain = 0
KOD1 142149Z 18012KT 26/09 A2998 RMK A01 T02640086  RH  032%=      5-min Rain = 0
KOD1 142150Z 16014G19KT 26/09 A2998 RMK A01 T02640086  RH  033%=      5-min Rain = 0
KOD1 142151Z 16016KT 26/09 A2998 RMK A01 T02640085  RH  032%=      5-min Rain = 0
KOD1 142152Z 17013KT 26/08 A2998 RMK A01 T02640084  RH  032%=      5-min Rain = 0
KOD1 142153Z 17014KT 26/08 A2998 RMK A01 T02630082  RH  032%=      5-min Rain = 0
KOD1 142154Z 17013KT 26/08 A2998 RMK A01 T02620084  RH  032%=      5-min Rain = 0
KOD1 142155Z 16017KT 26/09 A2998 RMK A01 T02620085  RH  033%=      5-min Rain = 0
KOD1 142156Z 18016KT 26/09 A2998 RMK A01 T02620085  RH  033%=      5-min Rain = 0
KOD1 142157Z 18018KT 26/08 A2998 RMK A01 T02620083  RH  032%=      5-min Rain = 0
KOD1 142158Z 17016KT 26/08 A2998 RMK A01 T02620084  RH  032%=      5-min Rain = 0
KOD1 142159Z 17017KT 26/09 A2998 RMK A01 T02610085  RH  033%=      5-min Rain = 0
KOD1 142200Z 17013KT 26/09 A2998 RMK A01 T02600086  RH  033%=      5-min Rain = 0
KOD1 142201Z 17014KT 26/09 A2998 RMK A01 T02610087  RH  033%=      5-min Rain = 0
KOD1 142202Z 17014KT 26/09 A2998 RMK A01 T02610085  RH  033%=      5-min Rain = 0
KOD1 142203Z 17017KT 26/09 A2997 RMK A01 T02610086  RH  033%=      5-min Rain = 0
KOD1 142204Z 17017KT 26/09 A2997 RMK A01 T02620086  RH  033%=      5-min Rain = 0
KOD1 142205Z 17016KT 26/09 A2997 RMK A01 T02610085  RH  033%=      5-min Rain = 0
KOD1 142206Z 17018KT 26/09 A2997 RMK A01 T02610085  RH  033%=      5-min Rain = 0
KOD1 142207Z 18017KT 26/09 A2997 RMK A01 T02610085  RH  033%=      5-min Rain = 0
KOD1 142208Z 17014KT 26/09 A2997 RMK A01 T02610085  RH  033%=      5-min Rain = 0
KOD1 142209Z 17016KT 26/09 A2997 RMK A01 T02610085  RH  033%=      5-min Rain = 0
KOD1 142210Z 17012KT 26/09 A2997 RMK A01 T02610086  RH  033%=      5-min Rain = 0
KOD1 142211Z 17014KT 26/09 A2997 RMK A01 T02620087  RH  033%=      5-min Rain = 0
KOD1 142212Z 17014KT 26/09 A2997 RMK A01 T02630088  RH  033%=      5-min Rain = 0
KOD1 142213Z 16014KT 26/09 A2997 RMK A01 T02620088  RH  033%=      5-min Rain = 0
KOD1 142214Z 16014KT 26/09 A2997 RMK A01 T02610089  RH  033%=      5-min Rain = 0
KOD1 142215Z 17015KT 26/09 A2996 RMK A01 T02630089  RH  033%=      5-min Rain = 0
KOD1 142216Z 17015KT 26/09 A2996 RMK A01 T02630088  RH  033%=      5-min Rain = 0
KOD1 142217Z 16016KT 26/09 A2996 RMK A01 T02610088  RH  033%=      5-min Rain = 0
KOD1 142218Z 17013KT 26/09 A2996 RMK A01 T02610089  RH  034%=      5-min Rain = 0
KOD1 142219Z 17016KT 26/09 A2996 RMK A01 T02610087  RH  033%=      5-min Rain = 0
KOD1 142220Z 17014KT 26/09 A2996 RMK A01 T02610088  RH  033%=      5-min Rain = 0
KOD1 142221Z 18015KT 26/09 A2997 RMK A01 T02620087  RH  033%=      5-min Rain = 0
KOD1 142222Z 18015KT 26/09 A2997 RMK A01 T02610088  RH  033%=      5-min Rain = 0
KOD1 142223Z 17014KT 26/09 A2997 RMK A01 T02600089  RH  034%=      5-min Rain = 0
KOD1 142224Z 17014KT 26/09 A2997 RMK A01 T02600091  RH  034%=      5-min Rain = 0
KOD1 142225Z 17013KT 26/09 A2997 RMK A01 T02600092  RH  035%=      5-min Rain = 0
KOD1 142226Z 17016KT 26/09 A2997 RMK A01 T02610091  RH  034%=      5-min Rain = 0
KOD1 142227Z 17015KT 26/09 A2997 RMK A01 T02620090  RH  034%=      5-min Rain = 0
KOD1 142228Z 18014KT 26/09 A2997 RMK A01 T02610089  RH  034%=      5-min Rain = 0
KOD1 142229Z 18014KT 26/09 A2997 RMK A01 T02610090  RH  034%=      5-min Rain = 0
KOD1 142230Z 17016KT 26/09 A2997 RMK A01 T02610089  RH  034%=      5-min Rain = 0
KOD1 142231Z 18016KT 26/09 A2997 RMK A01 T02600090  RH  034%=      5-min Rain = 0
KOD1 142232Z 17015KT 26/09 A2997 RMK A01 T02600090  RH  034%=      5-min Rain = 0
KOD1 142233Z 17015KT 26/09 A2997 RMK A01 T02600092  RH  035%=      5-min Rain = 0
KOD1 142234Z 17014KT 26/09 A2996 RMK A01 T02600091  RH  034%=      5-min Rain = 0
KOD1 142235Z 17015KT 26/09 A2996 RMK A01 T02600088  RH  034%=      5-min Rain = 0
KOD1 142236Z 17014G19KT 26/09 A2996 RMK A01 T02600089  RH  034%=      5-min Rain = 0
KOD1 142237Z 17018KT 26/09 A2997 RMK A01 T02590088  RH  034%=      5-min Rain = 0
KOD1 142238Z 17016KT 26/09 A2996 RMK A01 T02590088  RH  034%=      5-min Rain = 0
KOD1 142239Z 18014KT 26/09 A2996 RMK A01 T02590089  RH  034%=      5-min Rain = 0
KOD1 142240Z 18014KT 26/09 A2996 RMK A01 T02590089  RH  034%=      5-min Rain = 0
KOD1 142241Z 18013KT 26/09 A2996 RMK A01 T02590090  RH  034%=      5-min Rain = 0
KOD1 142242Z 17015KT 26/09 A2996 RMK A01 T02590091  RH  034%=      5-min Rain = 0
KOD1 142243Z 17018KT 26/09 A2996 RMK A01 T02590092  RH  035%=      5-min Rain = 0
KOD1 142244Z 17015G20KT 26/09 A2996 RMK A01 T02580093  RH  035%=      5-min Rain = 0
KOD1 142245Z 16017KT 26/09 A2996 RMK A01 T02570094  RH  036%=      5-min Rain = 0
KOD1 142246Z 16017KT 26/09 A2996 RMK A01 T02560094  RH  036%=      5-min Rain = 0
KOD1 142247Z 17018KT 26/09 A2996 RMK A01 T02570094  RH  036%=      5-min Rain = 0
KOD1 142248Z 17015KT 26/09 A2996 RMK A01 T02560094  RH  036%=      5-min Rain = 0
KOD1 142249Z 17015KT 26/10 A2996 RMK A01 T02560095  RH  036%=      5-min Rain = 0
KOD1 142250Z 17015KT 26/10 A2996 RMK A01 T02560095  RH  036%=      5-min Rain = 0
KOD1 142251Z 16017KT 26/10 A2996 RMK A01 T02550095  RH  036%=      5-min Rain = 0
KOD1 142252Z 17018KT 26/10 A2996 RMK A01 T02550095  RH  036%=      5-min Rain = 0
KOD1 142253Z 17016KT 26/10 A2996 RMK A01 T02550095  RH  037%=      5-min Rain = 0
KOD1 142254Z 18016KT 25/10 A2996 RMK A01 T02540096  RH  037%=      5-min Rain = 0
KOD1 142255Z 17015KT 25/10 A2996 RMK A01 T02540096  RH  037%=      5-min Rain = 0
KOD1 142256Z 17014KT 26/10 A2996 RMK A01 T02550096  RH  037%=      5-min Rain = 0
KOD1 142257Z 17014KT 26/10 A2996 RMK A01 T02550097  RH  037%=      5-min Rain = 0
KOD1 142258Z 17017KT 26/10 A2995 RMK A01 T02550096  RH  037%=      5-min Rain = 0
KOD1 142259Z 17017KT 25/10 A2995 RMK A01 T02540097  RH  037%=      5-min Rain = 0
KOD1 142300Z 17017KT 25/10 A2995 RMK A01 T02540098  RH  037%=      5-min Rain = 0
KOD1 142301Z 17017KT 25/10 A2995 RMK A01 T02530098  RH  037%=      5-min Rain = 0
KOD1 142302Z 17018KT 25/10 A2995 RMK A01 T02530098  RH  037%=      5-min Rain = 0
KOD1 142303Z 16017G22KT 25/10 A2995 RMK A01 T02530098  RH  037%=      5-min Rain = 0
KOD1 142304Z 16017KT 25/10 A2995 RMK A01 T02530098  RH  037%=      5-min Rain = 0
KOD1 142305Z 17015KT 25/10 A2995 RMK A01 T02540098  RH  037%=      5-min Rain = 0
KOD1 142306Z 16016KT 25/10 A2995 RMK A01 T02540098  RH  037%=      5-min Rain = 0
KOD1 142307Z 17015KT 25/10 A2995 RMK A01 T02540098  RH  037%=      5-min Rain = 0
KOD1 142308Z 17015KT 25/10 A2995 RMK A01 T02540099  RH  037%=      5-min Rain = 0
KOD1 142309Z 17015KT 26/10 A2995 RMK A01 T02550098  RH  037%=      5-min Rain = 0
KOD1 142310Z 17016KT 26/10 A2995 RMK A01 T02550098  RH  037%=      5-min Rain = 0
KOD1 142311Z 17014KT 26/10 A2995 RMK A01 T02550098  RH  037%=      5-min Rain = 0
KOD1 142312Z 17016KT 26/10 A2995 RMK A01 T02550098  RH  037%=      5-min Rain = 0
KOD1 142313Z 17015KT 26/10 A2995 RMK A01 T02550098  RH  037%=      5-min Rain = 0
KOD1 142314Z 17015KT 26/10 A2995 RMK A01 T02560098  RH  037%=      5-min Rain = 0
KOD1 142315Z 17015KT 26/10 A2995 RMK A01 T02560099  RH  037%=      5-min Rain = 0
KOD1 142316Z 17014KT 26/10 A2995 RMK A01 T02550099  RH  037%=      5-min Rain = 0
KOD1 142317Z 17015KT 26/10 A2995 RMK A01 T02550099  RH  037%=      5-min Rain = 0
KOD1 142318Z 17015KT 26/10 A2995 RMK A01 T02550099  RH  037%=      5-min Rain = 0
KOD1 142319Z 17016KT 25/10 A2995 RMK A01 T02540099  RH  038%=      5-min Rain = 0
KOD1 142320Z 16017KT 25/10 A2995 RMK A01 T02540099  RH  038%=      5-min Rain = 0
KOD1 142321Z 17015KT 25/10 A2995 RMK A01 T02530098  RH  037%=      5-min Rain = 0
KOD1 142322Z 16015KT 25/10 A2995 RMK A01 T02530097  RH  037%=      5-min Rain = 0
KOD1 142323Z 16015KT 25/10 A2995 RMK A01 T02540097  RH  037%=      5-min Rain = 0
KOD1 142324Z 16015KT 25/10 A2995 RMK A01 T02540096  RH  037%=      5-min Rain = 0
KOD1 142325Z 16017KT 25/10 A2995 RMK A01 T02540096  RH  037%=      5-min Rain = 0
KOD1 142326Z 16014KT 25/10 A2995 RMK A01 T02530096  RH  037%=      5-min Rain = 0
KOD1 142327Z 16014KT 25/10 A2995 RMK A01 T02530096  RH  037%=      5-min Rain = 0
KOD1 142328Z 16014KT 25/10 A2994 RMK A01 T02520096  RH  037%=      5-min Rain = 0
KOD1 142329Z 16014KT 25/10 A2995 RMK A01 T02520096  RH  037%=      5-min Rain = 0
KOD1 142330Z 16014KT 25/10 A2994 RMK A01 T02510096  RH  037%=      5-min Rain = 0
KOD1 142331Z 16014KT 25/10 A2994 RMK A01 T02510096  RH  037%=      5-min Rain = 0
KOD1 142332Z 16014KT 25/10 A2994 RMK A01 T02500096  RH  038%=      5-min Rain = 0
KOD1 142333Z 16013KT 25/10 A2994 RMK A01 T02500096  RH  038%=      5-min Rain = 0
KOD1 142334Z 16013KT 25/10 A2994 RMK A01 T02490096  RH  038%=      5-min Rain = 0
KOD1 142335Z 16013KT 25/10 A2994 RMK A01 T02490096  RH  038%=      5-min Rain = 0
KOD1 142336Z 16013KT 25/10 A2994 RMK A01 T02490096  RH  038%=      5-min Rain = 0
KOD1 142337Z 16013KT 25/10 A2994 RMK A01 T02480096  RH  038%=      5-min Rain = 0
KOD1 142338Z 16013KT 25/10 A2994 RMK A01 T02480096  RH  038%=      5-min Rain = 0
KOD1 142339Z 16014KT 25/10 A2994 RMK A01 T02480096  RH  038%=      5-min Rain = 0
KOD1 142340Z 16014KT 25/10 A2994 RMK A01 T02480096  RH  038%=      5-min Rain = 0
KOD1 142341Z 16015KT 25/10 A2994 RMK A01 T02480095  RH  038%=      5-min Rain = 0
KOD1 142342Z 16014KT 25/10 A2994 RMK A01 T02490095  RH  038%=      5-min Rain = 0
KOD1 142343Z 15013KT 25/10 A2994 RMK A01 T02480095  RH  038%=      5-min Rain = 0
KOD1 142344Z 15014KT 25/10 A2994 RMK A01 T02480095  RH  038%=      5-min Rain = 0
KOD1 142345Z 15012KT 25/10 A2994 RMK A01 T02470095  RH  038%=      5-min Rain = 0
KOD1 142346Z 15011KT 25/10 A2994 RMK A01 T02460095  RH  038%=      5-min Rain = 0
KOD1 142347Z 15010KT 25/10 A2994 RMK A01 T02460096  RH  039%=      5-min Rain = 0
KOD1 142348Z 15012KT 25/10 A2994 RMK A01 T02450097  RH  039%=      5-min Rain = 0
KOD1 142349Z 15012KT 25/10 A2994 RMK A01 T02450097  RH  039%=      5-min Rain = 0
KOD1 142350Z 16013KT 25/10 A2994 RMK A01 T02460097  RH  039%=      5-min Rain = 0
KOD1 142351Z 15011KT 25/10 A2994 RMK A01 T02450096  RH  039%=      5-min Rain = 0
KOD1 142352Z 15012KT 25/10 A2994 RMK A01 T02450096  RH  039%=      5-min Rain = 0
KOD1 142353Z 16011KT 24/10 A2994 RMK A01 T02440097  RH  039%=      5-min Rain = 0
KOD1 142354Z 16011KT 24/10 A2994 RMK A01 T02430097  RH  039%=      5-min Rain = 0
KOD1 142355Z 15012KT 24/10 A2993 RMK A01 T02430097  RH  040%=      5-min Rain = 0
KOD1 142356Z 15012KT 24/10 A2993 RMK A01 T02420097  RH  040%=      5-min Rain = 0
KOD1 142357Z 16013KT 24/10 A2993 RMK A01 T02420097  RH  040%=      5-min Rain = 0
KOD1 142358Z 15011KT 24/10 A2993 RMK A01 T02420096  RH  040%=      5-min Rain = 0
KOD1 142359Z 15011KT 24/10 A2993 RMK A01 T02410097  RH  040%=      5-min Rain = 0
KOD1 150000Z 15011KT 24/10 A2993 RMK A01 T02400097  RH  040%=      5-min Rain = 0
KOD1 150001Z 15010KT 24/10 A2993 RMK A01 T02390096  RH  040%=      5-min Rain = 0
KOD1 150002Z 15011KT 24/10 A2993 RMK A01 T02380097  RH  041%=      5-min Rain = 0
KOD1 150003Z 15010KT 24/10 A2993 RMK A01 T02370097  RH  041%=      5-min Rain = 0
KOD1 150004Z 15011KT 24/10 A2993 RMK A01 T02370097  RH  041%=      5-min Rain = 0
KOD1 150005Z 15010KT 24/10 A2993 RMK A01 T02360097  RH  041%=      5-min Rain = 0
KOD1 150006Z 15011KT 24/10 A2993 RMK A01 T02350097  RH  042%=      5-min Rain = 0
KOD1 150007Z 16011KT 23/10 A2993 RMK A01 T02340097  RH  042%=      5-min Rain = 0
KOD1 150008Z 16012KT 23/10 A2993 RMK A01 T02340097  RH  042%=      5-min Rain = 0
KOD1 150009Z 16012KT 23/10 A2993 RMK A01 T02330097  RH  042%=      5-min Rain = 0
KOD1 150010Z 16012KT 23/10 A2993 RMK A01 T02320097  RH  042%=      5-min Rain = 0
KOD1 150011Z 16012KT 23/10 A2993 RMK A01 T02310097  RH  042%=      5-min Rain = 0
KOD1 150012Z 16012KT 23/10 A2993 RMK A01 T02310097  RH  042%=      5-min Rain = 0
KOD1 150013Z 15013KT 23/10 A2993 RMK A01 T02310097  RH  043%=      5-min Rain = 0
KOD1 150014Z 15012KT 23/10 A2993 RMK A01 T02310097  RH  043%=      5-min Rain = 0
KOD1 150015Z 15013KT 23/10 A2993 RMK A01 T02300097  RH  043%=      5-min Rain = 0
KOD1 150016Z 15013KT 23/10 A2993 RMK A01 T02300097  RH  043%=      5-min Rain = 0
KOD1 150017Z 15013KT 23/10 A2993 RMK A01 T02300097  RH  043%=      5-min Rain = 0
KOD1 150018Z 16012KT 23/10 A2993 RMK A01 T02300097  RH  043%=      5-min Rain = 0
KOD1 150019Z 16012KT 23/10 A2993 RMK A01 T02290097  RH  043%=      5-min Rain = 0
KOD1 150020Z 16014KT 23/10 A2993 RMK A01 T02300097  RH  043%=      5-min Rain = 0
KOD1 150021Z 16012KT 23/10 A2993 RMK A01 T02300096  RH  043%=      5-min Rain = 0
KOD1 150022Z 16011KT 23/10 A2993 RMK A01 T02280096  RH  043%=      5-min Rain = 0
KOD1 150023Z 16011KT 23/10 A2993 RMK A01 T02270096  RH  043%=      5-min Rain = 0
KOD1 150024Z 16011KT 23/10 A2993 RMK A01 T02260096  RH  044%=      5-min Rain = 0
KOD1 150025Z 16012KT 23/10 A2993 RMK A01 T02250097  RH  044%=      5-min Rain = 0
KOD1 150026Z 16011KT 22/10 A2993 RMK A01 T02240096  RH  044%=      5-min Rain = 0
KOD1 150027Z 16011KT 22/10 A2993 RMK A01 T02230096  RH  045%=      5-min Rain = 0
KOD1 150028Z 16011KT 22/10 A2993 RMK A01 T02210096  RH  045%=      5-min Rain = 0
KOD1 150029Z 16011KT 22/10 A2993 RMK A01 T02200096  RH  045%=      5-min Rain = 0
KOD1 150030Z 16012KT 22/10 A2993 RMK A01 T02190097  RH  046%=      5-min Rain = 0
KOD1 150031Z 16011KT 22/10 A2993 RMK A01 T02180097  RH  046%=      5-min Rain = 0
KOD1 150032Z 16011KT 22/10 A2993 RMK A01 T02180097  RH  046%=      5-min Rain = 0
KOD1 150033Z 16011KT 22/10 A2993 RMK A01 T02170096  RH  046%=      5-min Rain = 0
KOD1 150034Z 16011KT 22/10 A2993 RMK A01 T02160096  RH  046%=      5-min Rain = 0
KOD1 150035Z 16011KT 22/10 A2993 RMK A01 T02150096  RH  047%=      5-min Rain = 0
KOD1 150036Z 16011KT 22/10 A2993 RMK A01 T02150096  RH  047%=      5-min Rain = 0
KOD1 150037Z 16011KT 21/10 A2993 RMK A01 T02140097  RH  047%=      5-min Rain = 0
KOD1 150038Z 16012KT 21/10 A2993 RMK A01 T02140097  RH  047%=      5-min Rain = 0
KOD1 150039Z 16011KT 21/10 A2993 RMK A01 T02130097  RH  047%=      5-min Rain = 0
KOD1 150040Z 16011KT 21/10 A2993 RMK A01 T02130097  RH  047%=      5-min Rain = 0
KOD1 150041Z 16012KT 21/10 A2993 RMK A01 T02130097  RH  047%=      5-min Rain = 0
KOD1 150042Z 16012KT 21/10 A2993 RMK A01 T02120097  RH  048%=      5-min Rain = 0
KOD1 150043Z 16011KT 21/10 A2993 RMK A01 T02120097  RH  048%=      5-min Rain = 0
KOD1 150044Z 16012KT 21/10 A2993 RMK A01 T02110097  RH  048%=      5-min Rain = 0
KOD1 150045Z 16012KT 21/10 A2993 RMK A01 T02110097  RH  048%=      5-min Rain = 0
KOD1 150046Z 16012KT 21/10 A2993 RMK A01 T02100097  RH  048%=      5-min Rain = 0
KOD1 150047Z 16012KT 21/10 A2993 RMK A01 T02100097  RH  048%=      5-min Rain = 0
KOD1 150048Z 16012KT 21/10 A2993 RMK A01 T02090097  RH  049%=      5-min Rain = 0
KOD1 150049Z 16012KT 21/10 A2993 RMK A01 T02090097  RH  049%=      5-min Rain = 0
KOD1 150050Z 16011KT 21/10 A2993 RMK A01 T02090097  RH  049%=      5-min Rain = 0
KOD1 150051Z 16011KT 21/10 A2993 RMK A01 T02080097  RH  049%=      5-min Rain = 0
KOD1 150052Z 16011KT 21/10 A2993 RMK A01 T02070097  RH  049%=      5-min Rain = 0
KOD1 150053Z 16012KT 21/10 A2993 RMK A01 T02070097  RH  049%=      5-min Rain = 0
KOD1 150054Z 16012KT 21/10 A2993 RMK A01 T02070097  RH  049%=      5-min Rain = 0
KOD1 150055Z 16013KT 21/10 A2992 RMK A01 T02070098  RH  049%=      5-min Rain = 0
KOD1 150056Z 16013KT 21/10 A2992 RMK A01 T02080097  RH  049%=      5-min Rain = 0
KOD1 150057Z 16013KT 21/10 A2992 RMK A01 T02090097  RH  049%=      5-min Rain = 0
KOD1 150058Z 16013KT 21/10 A2992 RMK A01 T02080097  RH  049%=      5-min Rain = 0
KOD1 150059Z 16013KT 21/10 A2992 RMK A01 T02080097  RH  049%=      5-min Rain = 0
KOD1 150100Z 16014KT 21/10 A2992 RMK A01 T02080097  RH  049%=      5-min Rain = 0
KOD1 150101Z 16015KT 21/10 A2992 RMK A01 T02070098  RH  049%=      5-min Rain = 0
KOD1 150102Z 16015KT 21/10 A2992 RMK A01 T02080098  RH  049%=      5-min Rain = 0
KOD1 150103Z 16016KT 21/10 A2992 RMK A01 T02090097  RH  049%=      5-min Rain = 0
KOD1 150104Z 16015KT 21/10 A2992 RMK A01 T02090097  RH  049%=      5-min Rain = 0
KOD1 150105Z 16016KT 21/10 A2992 RMK A01 T02100098  RH  049%=      5-min Rain = 0
KOD1 150106Z 16015KT 21/10 A2992 RMK A01 T02100097  RH  048%=      5-min Rain = 0
KOD1 150107Z 16015KT 21/10 A2992 RMK A01 T02100097  RH  048%=      5-min Rain = 0
KOD1 150108Z 16014KT 21/10 A2992 RMK A01 T02100097  RH  048%=      5-min Rain = 0
KOD1 150109Z 16015KT 21/10 A2992 RMK A01 T02090097  RH  049%=      5-min Rain = 0
KOD1 150110Z 16014KT 21/10 A2992 RMK A01 T02100097  RH  049%=      5-min Rain = 0
KOD1 150111Z 16015KT 21/10 A2992 RMK A01 T02100098  RH  048%=      5-min Rain = 0
KOD1 150112Z 16013KT 21/10 A2992 RMK A01 T02110096  RH  048%=      5-min Rain = 0
KOD1 150113Z 16014KT 21/10 A2992 RMK A01 T02100097  RH  048%=      5-min Rain = 0
KOD1 150114Z 16014KT 21/10 A2992 RMK A01 T02090097  RH  049%=      5-min Rain = 0
KOD1 150115Z 16015KT 21/10 A2992 RMK A01 T02090097  RH  049%=      5-min Rain = 0
KOD1 150116Z 16014KT 21/10 A2992 RMK A01 T02090097  RH  049%=      5-min Rain = 0
KOD1 150117Z 16013KT 21/10 A2992 RMK A01 T02080096  RH  049%=      5-min Rain = 0
KOD1 150118Z 16013KT 21/10 A2992 RMK A01 T02070096  RH  049%=      5-min Rain = 0
KOD1 150119Z 16013KT 21/10 A2992 RMK A01 T02060097  RH  049%=      5-min Rain = 0
KOD1 150120Z 16013KT 21/10 A2992 RMK A01 T02060097  RH  049%=      5-min Rain = 0
KOD1 150121Z 16013KT 21/10 A2992 RMK A01 T02060097  RH  049%=      5-min Rain = 0
KOD1 150122Z 16013KT 21/10 A2992 RMK A01 T02060096  RH  049%=      5-min Rain = 0
KOD1 150123Z 16013KT 21/10 A2992 RMK A01 T02060097  RH  049%=      5-min Rain = 0
KOD1 150124Z 16013KT 21/10 A2992 RMK A01 T02070097  RH  049%=      5-min Rain = 0
KOD1 150125Z 16013KT 21/10 A2992 RMK A01 T02070097  RH  049%=      5-min Rain = 0
KOD1 150126Z 16013KT 21/10 A2992 RMK A01 T02070097  RH  049%=      5-min Rain = 0
KOD1 150127Z 16013KT 21/10 A2992 RMK A01 T02070097  RH  049%=      5-min Rain = 0
KOD1 150128Z 16013KT 21/10 A2992 RMK A01 T02060096  RH  049%=      5-min Rain = 0
KOD1 150129Z 16013KT 21/10 A2992 RMK A01 T02060097  RH  049%=      5-min Rain = 0
KOD1 150130Z 16013KT 21/10 A2992 RMK A01 T02060096  RH  049%=      5-min Rain = 0
KOD1 150131Z 16013KT 21/10 A2992 RMK A01 T02060097  RH  049%=      5-min Rain = 0
KOD1 150132Z 16013KT 21/10 A2992 RMK A01 T02060097  RH  049%=      5-min Rain = 0
KOD1 150133Z 16013KT 21/10 A2992 RMK A01 T02060097  RH  049%=      5-min Rain = 0
KOD1 150134Z 16013KT 21/10 A2992 RMK A01 T02070096  RH  049%=      5-min Rain = 0
KOD1 150135Z 16014KT 21/10 A2992 RMK A01 T02070097  RH  049%=      5-min Rain = 0
KOD1 150136Z 16013KT 21/10 A2992 RMK A01 T02070097  RH  049%=      5-min Rain = 0
KOD1 150137Z 16013KT 21/10 A2992 RMK A01 T02070096  RH  049%=      5-min Rain = 0
KOD1 150138Z 16014KT 21/10 A2992 RMK A01 T02070096  RH  049%=      5-min Rain = 0
KOD1 150139Z 16015KT 21/10 A2992 RMK A01 T02070097  RH  049%=      5-min Rain = 0
KOD1 150140Z 16014KT 21/10 A2992 RMK A01 T02070096  RH  049%=      5-min Rain = 0
KOD1 150141Z 17014KT 21/10 A2992 RMK A01 T02060096  RH  049%=      5-min Rain = 0
KOD1 150142Z 16014KT 21/10 A2992 RMK A01 T02060096  RH  049%=      5-min Rain = 0
KOD1 150143Z 16013KT 21/10 A2992 RMK A01 T02050096  RH  049%=      5-min Rain = 0
KOD1 150144Z 16013KT 20/10 A2992 RMK A01 T02040096  RH  050%=      5-min Rain = 0
KOD1 150145Z 16014KT 20/10 A2992 RMK A01 T02040096  RH  050%=      5-min Rain = 0
KOD1 150146Z 16014KT 20/10 A2992 RMK A01 T02040096  RH  050%=      5-min Rain = 0
KOD1 150147Z 16014KT 20/10 A2992 RMK A01 T02040096  RH  050%=      5-min Rain = 0
KOD1 150148Z 16015KT 20/10 A2992 RMK A01 T02040096  RH  050%=      5-min Rain = 0
KOD1 150149Z 17015KT 20/10 A2992 RMK A01 T02040096  RH  050%=      5-min Rain = 0
KOD1 150150Z 16015KT 20/10 A2992 RMK A01 T02040096  RH  050%=      5-min Rain = 0
KOD1 150151Z 17014KT 20/10 A2992 RMK A01 T02040096  RH  050%=      5-min Rain = 0
KOD1 150152Z 16014KT 20/10 A2992 RMK A01 T02040096  RH  050%=      5-min Rain = 0
KOD1 150153Z 16014KT 20/10 A2991 RMK A01 T02040095  RH  050%=      5-min Rain = 0
KOD1 150154Z 17015KT 20/10 A2991 RMK A01 T02040096  RH  050%=      5-min Rain = 0
KOD1 150155Z 17014KT 20/10 A2991 RMK A01 T02040095  RH  050%=      5-min Rain = 0
KOD1 150156Z 17014KT 20/10 A2991 RMK A01 T02040095  RH  050%=      5-min Rain = 0
KOD1 150157Z 17014KT 20/10 A2991 RMK A01 T02040096  RH  050%=      5-min Rain = 0
KOD1 150158Z 17014KT 20/10 A2991 RMK A01 T02040095  RH  050%=      5-min Rain = 0
KOD1 150159Z 17014KT 20/10 A2991 RMK A01 T02030096  RH  050%=      5-min Rain = 0
KOD1 150200Z 17014KT 20/10 A2991 RMK A01 T02030096  RH  050%=      5-min Rain = 0
KOD1 150201Z 17014KT 20/10 A2991 RMK A01 T02040096  RH  050%=      5-min Rain = 0
KOD1 150202Z 17014KT 21/10 A2991 RMK A01 T02050096  RH  050%=      5-min Rain = 0
KOD1 150203Z 17013KT 21/10 A2991 RMK A01 T02050096  RH  049%=      5-min Rain = 0
KOD1 150204Z 17014KT 21/10 A2991 RMK A01 T02050096  RH  050%=      5-min Rain = 0
KOD1 150205Z 17014KT 21/10 A2991 RMK A01 T02060096  RH  049%=      5-min Rain = 0
KOD1 150206Z 17015KT 21/10 A2991 RMK A01 T02050096  RH  049%=      5-min Rain = 0
KOD1 150207Z 17015KT 21/10 A2991 RMK A01 T02060096  RH  049%=      5-min Rain = 0
KOD1 150208Z 17015KT 21/10 A2991 RMK A01 T02070096  RH  049%=      5-min Rain = 0
KOD1 150209Z 17015KT 21/10 A2991 RMK A01 T02060096  RH  049%=      5-min Rain = 0
KOD1 150210Z 17015KT 21/10 A2991 RMK A01 T02070096  RH  049%=      5-min Rain = 0
KOD1 150211Z 17016KT 21/10 A2991 RMK A01 T02080096  RH  049%=      5-min Rain = 0
KOD1 150212Z 17016KT 21/10 A2991 RMK A01 T02080096  RH  049%=      5-min Rain = 0
KOD1 150213Z 17016KT 21/10 A2991 RMK A01 T02090096  RH  049%=      5-min Rain = 0
KOD1 150214Z 17016KT 21/10 A2991 RMK A01 T02090096  RH  048%=      5-min Rain = 0
KOD1 150215Z 17016KT 21/10 A2991 RMK A01 T02090096  RH  048%=      5-min Rain = 0
KOD1 150216Z 17017KT 21/10 A2991 RMK A01 T02090096  RH  048%=      5-min Rain = 0
KOD1 150217Z 17016KT 21/10 A2991 RMK A01 T02090096  RH  048%=      5-min Rain = 0
KOD1 150218Z 17016KT 21/10 A2991 RMK A01 T02090096  RH  048%=      5-min Rain = 0
KOD1 150219Z 17017KT 21/10 A2991 RMK A01 T02090097  RH  049%=      5-min Rain = 0
KOD1 150220Z 17016KT 21/10 A2991 RMK A01 T02090097  RH  048%=      5-min Rain = 0
KOD1 150221Z 17016KT 21/10 A2991 RMK A01 T02090096  RH  049%=      5-min Rain = 0
KOD1 150222Z 17018KT 21/10 A2991 RMK A01 T02090097  RH  049%=      5-min Rain = 0
KOD1 150223Z 17016KT 21/10 A2991 RMK A01 T02090097  RH  049%=      5-min Rain = 0
KOD1 150224Z 17016KT 21/10 A2991 RMK A01 T02080097  RH  049%=      5-min Rain = 0
KOD1 150225Z 17017G22KT 21/10 A2991 RMK A01 T02080097  RH  049%=      5-min Rain = 0
KOD1 150226Z 18018KT 21/10 A2991 RMK A01 T02080097  RH  049%=      5-min Rain = 0
KOD1 150227Z 17018KT 21/10 A2991 RMK A01 T02080097  RH  049%=      5-min Rain = 0
KOD1 150228Z 17018KT 21/10 A2991 RMK A01 T02080097  RH  049%=      5-min Rain = 0
KOD1 150229Z 17016KT 21/10 A2991 RMK A01 T02070097  RH  049%=      5-min Rain = 0
KOD1 150230Z 18017KT 21/10 A2991 RMK A01 T02070097  RH  049%=      5-min Rain = 0
KOD1 150231Z 17018KT 21/10 A2991 RMK A01 T02070098  RH  049%=      5-min Rain = 0
KOD1 150232Z 17016KT 21/10 A2991 RMK A01 T02070097  RH  049%=      5-min Rain = 0
KOD1 150233Z 17017KT 21/10 A2991 RMK A01 T02070098  RH  050%=      5-min Rain = 0
KOD1 150234Z 18018KT 21/10 A2991 RMK A01 T02070098  RH  050%=      5-min Rain = 0
KOD1 150235Z 17016KT 21/10 A2991 RMK A01 T02070098  RH  049%=      5-min Rain = 0
KOD1 150236Z 18017KT 21/10 A2991 RMK A01 T02070097  RH  050%=      5-min Rain = 0
KOD1 150237Z 18017KT 21/10 A2991 RMK A01 T02060098  RH  050%=      5-min Rain = 0
KOD1 150238Z 18017KT 21/10 A2991 RMK A01 T02060098  RH  050%=      5-min Rain = 0
KOD1 150239Z 18018KT 21/10 A2991 RMK A01 T02070098  RH  050%=      5-min Rain = 0
KOD1 150240Z 18017KT 21/10 A2991 RMK A01 T02080098  RH  050%=      5-min Rain = 0
KOD1 150241Z 18017KT 21/10 A2992 RMK A01 T02080098  RH  049%=      5-min Rain = 0
KOD1 150242Z 18016KT 21/10 A2992 RMK A01 T02080098  RH  050%=      5-min Rain = 0
KOD1 150243Z 18015KT 21/10 A2992 RMK A01 T02070099  RH  050%=      5-min Rain = 0
KOD1 150244Z 18016KT 21/10 A2992 RMK A01 T02070099  RH  050%=      5-min Rain = 0
KOD1 150245Z 18017KT 21/10 A2992 RMK A01 T02070099  RH  050%=      5-min Rain = 0
KOD1 150246Z 18017KT 21/10 A2992 RMK A01 T02080100  RH  050%=      5-min Rain = 0
KOD1 150247Z 18017KT 21/10 A2992 RMK A01 T02090100  RH  050%=      5-min Rain = 0
KOD1 150248Z 18018KT 21/10 A2992 RMK A01 T02110100  RH  049%=      5-min Rain = 0
KOD1 150249Z 18015KT 21/10 A2992 RMK A01 T02110100  RH  049%=      5-min Rain = 0
KOD1 150250Z 18016KT 21/10 A2992 RMK A01 T02100100  RH  049%=      5-min Rain = 0
KOD1 150251Z 18017KT 21/10 A2992 RMK A01 T02110101  RH  049%=      5-min Rain = 0
KOD1 150252Z 18018KT 21/10 A2992 RMK A01 T02110101  RH  049%=      5-min Rain = 0
KOD1 150253Z 18015KT 21/10 A2992 RMK A01 T02110100  RH  049%=      5-min Rain = 0
KOD1 150254Z 18017KT 21/10 A2992 RMK A01 T02110101  RH  049%=      5-min Rain = 0
KOD1 150255Z 18017KT 21/10 A2992 RMK A01 T02110101  RH  049%=      5-min Rain = 0
KOD1 150256Z 18016KT 21/10 A2992 RMK A01 T02110101  RH  049%=      5-min Rain = 0
KOD1 150257Z 18015KT 21/10 A2992 RMK A01 T02110101  RH  049%=      5-min Rain = 0
KOD1 150258Z 18016KT 21/10 A2992 RMK A01 T02100101  RH  050%=      5-min Rain = 0
KOD1 150259Z 18017KT 21/10 A2992 RMK A01 T02110101  RH  049%=      5-min Rain = 0
KOD1 150300Z 18017KT 21/10 A2992 RMK A01 T02110101  RH  050%=      5-min Rain = 0
KOD1 150301Z 18017KT 21/10 A2992 RMK A01 T02110101  RH  050%=      5-min Rain = 0
KOD1 150302Z 18016KT 21/10 A2992 RMK A01 T02110101  RH  050%=      5-min Rain = 0
KOD1 150303Z 18016KT 21/10 A2992 RMK A01 T02100101  RH  050%=      5-min Rain = 0
KOD1 150304Z 18016KT 21/10 A2992 RMK A01 T02100101  RH  050%=      5-min Rain = 0
KOD1 150305Z 18017KT 21/10 A2992 RMK A01 T02090102  RH  050%=      5-min Rain = 0
KOD1 150306Z 18017KT 21/10 A2992 RMK A01 T02100102  RH  050%=      5-min Rain = 0
KOD1 150307Z 18016KT 21/10 A2992 RMK A01 T02100102  RH  050%=      5-min Rain = 0
KOD1 150308Z 18016KT 21/10 A2992 RMK A01 T02100102  RH  050%=      5-min Rain = 0
KOD1 150309Z 18016KT 21/10 A2992 RMK A01 T02100102  RH  050%=      5-min Rain = 0
KOD1 150310Z 18016KT 21/10 A2992 RMK A01 T02100102  RH  050%=      5-min Rain = 0
KOD1 150311Z 18017KT 21/10 A2992 RMK A01 T02100102  RH  050%=      5-min Rain = 0
KOD1 150312Z 18017KT 21/10 A2992 RMK A01 T02110102  RH  050%=      5-min Rain = 0
KOD1 150313Z 18017KT 21/10 A2992 RMK A01 T02110102  RH  050%=      5-min Rain = 0
KOD1 150314Z 18017KT 21/10 A2992 RMK A01 T02110102  RH  050%=      5-min Rain = 0
KOD1 150315Z 18018KT 21/10 A2992 RMK A01 T02110103  RH  050%=      5-min Rain = 0
KOD1 150316Z 18019KT 21/10 A2992 RMK A01 T02120103  RH  050%=      5-min Rain = 0
KOD1 150317Z 18018KT 21/10 A2992 RMK A01 T02130103  RH  049%=      5-min Rain = 0
KOD1 150318Z 18017KT 21/10 A2992 RMK A01 T02140103  RH  049%=      5-min Rain = 0
KOD1 150319Z 18017KT 21/10 A2992 RMK A01 T02130103  RH  049%=      5-min Rain = 0
KOD1 150320Z 18016KT 21/10 A2992 RMK A01 T02130103  RH  049%=      5-min Rain = 0
KOD1 150321Z 18017KT 21/10 A2992 RMK A01 T02130103  RH  049%=      5-min Rain = 0
KOD1 150322Z 18017KT 21/10 A2992 RMK A01 T02130103  RH  049%=      5-min Rain = 0
KOD1 150323Z 18016KT 21/10 A2992 RMK A01 T02130103  RH  049%=      5-min Rain = 0
KOD1 150324Z 18016G21KT 21/10 A2992 RMK A01 T02130103  RH  050%=      5-min Rain = 0
KOD1 150325Z 18016KT 21/10 A2992 RMK A01 T02130103  RH  050%=      5-min Rain = 0
KOD1 150326Z 18015KT 21/10 A2992 RMK A01 T02120103  RH  050%=      5-min Rain = 0
KOD1 150327Z 18016KT 21/10 A2992 RMK A01 T02120103  RH  050%=      5-min Rain = 0
KOD1 150328Z 18016KT 21/10 A2992 RMK A01 T02120103  RH  050%=      5-min Rain = 0
KOD1 150329Z 18017KT 21/10 A2992 RMK A01 T02120103  RH  050%=      5-min Rain = 0
KOD1 150330Z 18018KT 21/10 A2992 RMK A01 T02120103  RH  050%=      5-min Rain = 0
KOD1 150331Z 18017KT 21/10 A2992 RMK A01 T02130103  RH  050%=      5-min Rain = 0
KOD1 150332Z 18018KT 21/10 A2992 RMK A01 T02140104  RH  049%=      5-min Rain = 0
KOD1 150333Z 18017KT 21/10 A2992 RMK A01 T02140104  RH  049%=      5-min Rain = 0
KOD1 150334Z 18017KT 21/10 A2992 RMK A01 T02140104  RH  049%=      5-min Rain = 0
KOD1 150335Z 18015KT 21/10 A2993 RMK A01 T02140104  RH  049%=      5-min Rain = 0
KOD1 150336Z 18015KT 21/10 A2993 RMK A01 T02130104  RH  049%=      5-min Rain = 0
KOD1 150337Z 18016KT 21/10 A2993 RMK A01 T02130104  RH  050%=      5-min Rain = 0
KOD1 150338Z 18016KT 21/10 A2993 RMK A01 T02130104  RH  050%=      5-min Rain = 0
KOD1 150339Z 18015KT 21/10 A2993 RMK A01 T02130104  RH  050%=      5-min Rain = 0
KOD1 150340Z 18015KT 21/10 A2993 RMK A01 T02130104  RH  050%=      5-min Rain = 0
KOD1 150341Z 18015KT 21/10 A2993 RMK A01 T02130104  RH  050%=      5-min Rain = 0
KOD1 150342Z 18015KT 21/10 A2993 RMK A01 T02130104  RH  050%=      5-min Rain = 0
KOD1 150343Z 18015KT 21/10 A2993 RMK A01 T02130104  RH  050%=      5-min Rain = 0
KOD1 150344Z 19015KT 21/10 A2993 RMK A01 T02130104  RH  050%=      5-min Rain = 0
KOD1 150345Z 18016KT 21/10 A2993 RMK A01 T02140104  RH  050%=      5-min Rain = 0
KOD1 150346Z 18014KT 21/10 A2993 RMK A01 T02140104  RH  050%=      5-min Rain = 0
KOD1 150347Z 18014KT 21/10 A2993 RMK A01 T02140104  RH  050%=      5-min Rain = 0
KOD1 150348Z 18015KT 21/10 A2993 RMK A01 T02130104  RH  050%=      5-min Rain = 0
KOD1 150349Z 18014KT 21/10 A2993 RMK A01 T02130104  RH  050%=      5-min Rain = 0
KOD1 150350Z 18014KT 21/10 A2993 RMK A01 T02130104  RH  050%=      5-min Rain = 0
KOD1 150351Z 18015KT 21/10 A2993 RMK A01 T02140104  RH  050%=      5-min Rain = 0
KOD1 150352Z 18015KT 21/10 A2993 RMK A01 T02140104  RH  050%=      5-min Rain = 0
KOD1 150353Z 18016KT 21/11 A2993 RMK A01 T02140105  RH  050%=      5-min Rain = 0
KOD1 150354Z 18016KT 22/10 A2993 RMK A01 T02150104  RH  049%=      5-min Rain = 0
KOD1 150355Z 18014KT 22/10 A2993 RMK A01 T02150104  RH  049%=      5-min Rain = 0
KOD1 150356Z 18016KT 21/11 A2993 RMK A01 T02140105  RH  050%=      5-min Rain = 0
KOD1 150357Z 18017KT 22/11 A2993 RMK A01 T02160105  RH  049%=      5-min Rain = 0
KOD1 150358Z 18015KT 22/11 A2993 RMK A01 T02160105  RH  049%=      5-min Rain = 0
KOD1 150359Z 18015KT 22/11 A2993 RMK A01 T02160105  RH  049%=      5-min Rain = 0
KOD1 150400Z 18015KT 22/11 A2993 RMK A01 T02160105  RH  049%=      5-min Rain = 0
KOD1 150401Z 19015KT 22/11 A2993 RMK A01 T02160105  RH  049%=      5-min Rain = 0
KOD1 150402Z 19015KT 22/11 A2993 RMK A01 T02160105  RH  049%=      5-min Rain = 0
KOD1 150403Z 19015KT 22/11 A2993 RMK A01 T02160105  RH  049%=      5-min Rain = 0
KOD1 150404Z 19015KT 22/11 A2993 RMK A01 T02160105  RH  049%=      5-min Rain = 0
KOD1 150405Z 19017KT 22/11 A2993 RMK A01 T02160105  RH  049%=      5-min Rain = 0
KOD1 150406Z 19017KT 22/11 A2993 RMK A01 T02160105  RH  049%=      5-min Rain = 0
KOD1 150407Z 19015KT 22/11 A2993 RMK A01 T02160105  RH  049%=      5-min Rain = 0
KOD1 150408Z 19016KT 22/11 A2993 RMK A01 T02160105  RH  049%=      5-min Rain = 0
KOD1 150409Z 19014KT 22/10 A2994 RMK A01 T02150104  RH  049%=      5-min Rain = 0
KOD1 150410Z 19017KT 22/11 A2994 RMK A01 T02150105  RH  049%=      5-min Rain = 0
KOD1 150411Z 19016KT 22/11 A2993 RMK A01 T02150105  RH  049%=      5-min Rain = 0
KOD1 150412Z 19015KT 21/10 A2994 RMK A01 T02140104  RH  050%=      5-min Rain = 0
KOD1 150413Z 18015KT 21/10 A2993 RMK A01 T02130104  RH  050%=      5-min Rain = 0
KOD1 150414Z 19014KT 21/10 A2993 RMK A01 T02120104  RH  050%=      5-min Rain = 0
KOD1 150415Z 18015KT 21/10 A2993 RMK A01 T02110104  RH  050%=      5-min Rain = 0
KOD1 150416Z 18015KT 21/10 A2993 RMK A01 T02110104  RH  050%=      5-min Rain = 0
KOD1 150417Z 18014KT 21/10 A2993 RMK A01 T02110104  RH  051%=      5-min Rain = 0
KOD1 150418Z 19015KT 21/10 A2993 RMK A01 T02100104  RH  051%=      5-min Rain = 0
KOD1 150419Z 19013KT 21/10 A2993 RMK A01 T02100104  RH  051%=      5-min Rain = 0
KOD1 150420Z 19014KT 21/10 A2993 RMK A01 T02090104  RH  051%=      5-min Rain = 0
KOD1 150421Z 19013KT 21/10 A2993 RMK A01 T02090104  RH  051%=      5-min Rain = 0
KOD1 150422Z 19014KT 21/10 A2993 RMK A01 T02080104  RH  051%=      5-min Rain = 0
KOD1 150423Z 19014KT 21/11 A2993 RMK A01 T02080105  RH  051%=      5-min Rain = 0
KOD1 150424Z 18014KT 21/11 A2993 RMK A01 T02080105  RH  052%=      5-min Rain = 0
KOD1 150425Z 19014KT 21/11 A2993 RMK A01 T02080105  RH  052%=      5-min Rain = 0
KOD1 150426Z 19013KT 21/10 A2993 RMK A01 T02080104  RH  051%=      5-min Rain = 0
KOD1 150427Z 19015KT 21/11 A2993 RMK A01 T02070105  RH  052%=      5-min Rain = 0
KOD1 150428Z 19014KT 21/11 A2993 RMK A01 T02070105  RH  052%=      5-min Rain = 0
KOD1 150429Z 19014KT 21/10 A2993 RMK A01 T02070104  RH  052%=      5-min Rain = 0
KOD1 150430Z 19015KT 21/11 A2993 RMK A01 T02070105  RH  052%=      5-min Rain = 0
KOD1 150431Z 19015KT 21/11 A2993 RMK A01 T02070105  RH  052%=      5-min Rain = 0
KOD1 150432Z 18015KT 21/11 A2993 RMK A01 T02070105  RH  052%=      5-min Rain = 0
KOD1 150433Z 18016KT 21/11 A2993 RMK A01 T02080106  RH  052%=      5-min Rain = 0
KOD1 150434Z 19015KT 21/11 A2993 RMK A01 T02080106  RH  052%=      5-min Rain = 0
KOD1 150435Z 19015KT 21/11 A2994 RMK A01 T02090106  RH  052%=      5-min Rain = 0
KOD1 150436Z 19015KT 21/11 A2994 RMK A01 T02100106  RH  051%=      5-min Rain = 0
KOD1 150437Z 19015KT 21/11 A2994 RMK A01 T02100106  RH  051%=      5-min Rain = 0
KOD1 150438Z 19014KT 21/11 A2994 RMK A01 T02100106  RH  051%=      5-min Rain = 0
KOD1 150439Z 19016KT 21/11 A2994 RMK A01 T02100106  RH  052%=      5-min Rain = 0
KOD1 150440Z 19016KT 21/11 A2994 RMK A01 T02100106  RH  051%=      5-min Rain = 0
KOD1 150441Z 18016KT 21/11 A2994 RMK A01 T02100106  RH  052%=      5-min Rain = 0
KOD1 150442Z 18016KT 21/11 A2994 RMK A01 T02100106  RH  052%=      5-min Rain = 0
KOD1 150443Z 18015KT 21/11 A2994 RMK A01 T02100106  RH  052%=      5-min Rain = 0
KOD1 150444Z 18016KT 21/11 A2994 RMK A01 T02090107  RH  052%=      5-min Rain = 0
KOD1 150445Z 19015KT 21/11 A2994 RMK A01 T02090107  RH  052%=      5-min Rain = 0
KOD1 150446Z 18013KT 21/11 A2994 RMK A01 T02090106  RH  052%=      5-min Rain = 0
KOD1 150447Z 18015KT 21/11 A2994 RMK A01 T02080107  RH  052%=      5-min Rain = 0
KOD1 150448Z 18014KT 21/11 A2994 RMK A01 T02070107  RH  052%=      5-min Rain = 0
KOD1 150449Z 18014KT 21/11 A2994 RMK A01 T02070107  RH  053%=      5-min Rain = 0
KOD1 150450Z 19014KT 21/11 A2994 RMK A01 T02070107  RH  053%=      5-min Rain = 0
KOD1 150451Z 18013KT 21/11 A2994 RMK A01 T02060107  RH  053%=      5-min Rain = 0
KOD1 150452Z 18014KT 21/11 A2994 RMK A01 T02050107  RH  053%=      5-min Rain = 0
KOD1 150453Z 18014KT 20/11 A2994 RMK A01 T02040106  RH  053%=      5-min Rain = 0
KOD1 150454Z 18014KT 20/11 A2994 RMK A01 T02040107  RH  054%=      5-min Rain = 0
KOD1 150455Z 18016KT 20/11 A2994 RMK A01 T02040107  RH  054%=      5-min Rain = 0
KOD1 150456Z 19015KT 20/11 A2994 RMK A01 T02040107  RH  054%=      5-min Rain = 0
KOD1 150457Z 18014KT 20/11 A2994 RMK A01 T02030107  RH  054%=      5-min Rain = 0
KOD1 150458Z 18015KT 20/11 A2994 RMK A01 T02030107  RH  054%=      5-min Rain = 0
KOD1 150459Z 18014KT 20/11 A2994 RMK A01 T02020107  RH  054%=      5-min Rain = 0
KOD1 150500Z 18015KT 20/11 A2994 RMK A01 T02020107  RH  054%=      5-min Rain = 0
KOD1 150501Z 18015KT 20/11 A2994 RMK A01 T02020107  RH  054%=      5-min Rain = 0
KOD1 150502Z 18014KT 20/11 A2993 RMK A01 T02020107  RH  055%=      5-min Rain = 0
KOD1 150503Z 19015KT 20/11 A2994 RMK A01 T02020108  RH  055%=      5-min Rain = 0
KOD1 150504Z 19014KT 20/11 A2994 RMK A01 T02020108  RH  055%=      5-min Rain = 0
KOD1 150505Z 19014KT 20/11 A2994 RMK A01 T02020108  RH  055%=      5-min Rain = 0
KOD1 150506Z 19014KT 20/11 A2994 RMK A01 T02020109  RH  055%=      5-min Rain = 0
KOD1 150507Z 19013KT 20/11 A2994 RMK A01 T02020108  RH  055%=      5-min Rain = 0
KOD1 150508Z 19014KT 20/11 A2994 RMK A01 T02020108  RH  055%=      5-min Rain = 0
KOD1 150509Z 19013KT 20/11 A2994 RMK A01 T02020108  RH  055%=      5-min Rain = 0
KOD1 150510Z 19014KT 20/11 A2994 RMK A01 T02010109  RH  055%=      5-min Rain = 0
KOD1 150511Z 19014KT 20/11 A2994 RMK A01 T02010109  RH  055%=      5-min Rain = 0
KOD1 150512Z 19015KT 20/11 A2994 RMK A01 T02020109  RH  055%=      5-min Rain = 0
KOD1 150513Z 19014KT 20/11 A2994 RMK A01 T02020109  RH  055%=      5-min Rain = 0
KOD1 150514Z 19013KT 20/11 A2994 RMK A01 T02020109  RH  055%=      5-min Rain = 0
KOD1 150515Z 19015KT 20/11 A2994 RMK A01 T02020110  RH  055%=      5-min Rain = 0
KOD1 150516Z 19015KT 20/11 A2994 RMK A01 T02020110  RH  055%=      5-min Rain = 0
KOD1 150517Z 19013G18KT 20/11 A2994 RMK A01 T02020109  RH  055%=      5-min Rain = 0
KOD1 150518Z 19015KT 20/11 A2994 RMK A01 T02010110  RH  056%=      5-min Rain = 0
KOD1 150519Z 19013KT 20/11 A2994 RMK A01 T02010110  RH  056%=      5-min Rain = 0
KOD1 150520Z 19013KT 20/11 A2994 RMK A01 T02010110  RH  056%=      5-min Rain = 0
KOD1 150521Z 19013KT 20/11 A2994 RMK A01 T02000110  RH  056%=      5-min Rain = 0
KOD1 150522Z 19013KT 20/11 A2994 RMK A01 T02000110  RH  056%=      5-min Rain = 0
KOD1 150523Z 19014KT 20/11 A2994 RMK A01 T02000111  RH  056%=      5-min Rain = 0
KOD1 150524Z 19012KT 20/11 A2994 RMK A01 T02000110  RH  056%=      5-min Rain = 0
KOD1 150525Z 19015KT 20/11 A2994 RMK A01 T01990112  RH  057%=      5-min Rain = 0
KOD1 150526Z 19013KT 20/11 A2994 RMK A01 T02000111  RH  057%=      5-min Rain = 0
KOD1 150527Z 19013KT 20/11 A2994 RMK A01 T02000111  RH  056%=      5-min Rain = 0
KOD1 150528Z 19013KT 20/11 A2994 RMK A01 T01990111  RH  057%=      5-min Rain = 0
KOD1 150529Z 19013KT 20/11 A2994 RMK A01 T01990112  RH  057%=      5-min Rain = 0
KOD1 150530Z 19014KT 20/11 A2994 RMK A01 T01990112  RH  057%=      5-min Rain = 0
KOD1 150531Z 19014KT 20/11 A2994 RMK A01 T01990112  RH  057%=      5-min Rain = 0
KOD1 150532Z 19013KT 20/11 A2994 RMK A01 T01990112  RH  057%=      5-min Rain = 0
KOD1 150533Z 19013KT 20/11 A2994 RMK A01 T01990112  RH  057%=      5-min Rain = 0
KOD1 150534Z 19014KT 20/11 A2994 RMK A01 T01990113  RH  058%=      5-min Rain = 0
KOD1 150535Z 19015KT 20/11 A2994 RMK A01 T01990113  RH  058%=      5-min Rain = 0
KOD1 150536Z 19015KT 20/11 A2994 RMK A01 T02000113  RH  057%=      5-min Rain = 0
KOD1 150537Z 19014G19KT 20/11 A2994 RMK A01 T01990113  RH  058%=      5-min Rain = 0
KOD1 150538Z 19015KT 20/11 A2994 RMK A01 T02000114  RH  058%=      5-min Rain = 0
KOD1 150539Z 19014KT 20/11 A2994 RMK A01 T02000114  RH  058%=      5-min Rain = 0
KOD1 150540Z 19015KT 20/11 A2994 RMK A01 T01990114  RH  058%=      5-min Rain = 0
KOD1 150541Z 19014KT 20/11 A2994 RMK A01 T01990114  RH  058%=      5-min Rain = 0
KOD1 150542Z 19014KT 20/11 A2994 RMK A01 T01990114  RH  058%=      5-min Rain = 0
KOD1 150543Z 19014KT 20/11 A2994 RMK A01 T01980114  RH  058%=      5-min Rain = 0
KOD1 150544Z 19015KT 20/11 A2994 RMK A01 T01980114  RH  058%=      5-min Rain = 0
KOD1 150545Z 19015KT 20/11 A2994 RMK A01 T01980114  RH  058%=      5-min Rain = 0
KOD1 150546Z 19014KT 20/11 A2994 RMK A01 T01980114  RH  058%=      5-min Rain = 0
KOD1 150547Z 19014KT 20/12 A2994 RMK A01 T01970115  RH  059%=      5-min Rain = 0
KOD1 150548Z 19015KT 20/12 A2994 RMK A01 T01970115  RH  059%=      5-min Rain = 0
KOD1 150549Z 19014KT 20/12 A2994 RMK A01 T01980115  RH  059%=      5-min Rain = 0
KOD1 150550Z 19014KT 20/12 A2994 RMK A01 T01970115  RH  059%=      5-min Rain = 0
KOD1 150551Z 18015KT 20/12 A2994 RMK A01 T01970116  RH  059%=      5-min Rain = 0
KOD1 150552Z 18014KT 20/12 A2993 RMK A01 T01970116  RH  059%=      5-min Rain = 0
KOD1 150553Z 19016KT 20/12 A2994 RMK A01 T01970116  RH  059%=      5-min Rain = 0
KOD1 150554Z 18016KT 20/12 A2994 RMK A01 T01980117  RH  059%=      5-min Rain = 0
KOD1 150555Z 18016KT 20/12 A2994 RMK A01 T01980117  RH  059%=      5-min Rain = 0
KOD1 150556Z 18016KT 20/12 A2994 RMK A01 T01990117  RH  059%=      5-min Rain = 0
KOD1 150557Z 19015KT 20/12 A2994 RMK A01 T01980117  RH  059%=      5-min Rain = 0
KOD1 150558Z 19015KT 20/12 A2994 RMK A01 T01980117  RH  060%=      5-min Rain = 0
KOD1 150559Z 19015KT 20/12 A2994 RMK A01 T01980118  RH  060%=      5-min Rain = 0

Page generated in 0.1005 seconds.